ECMWFFLT2_prec_precacc_024.txt.gz
Total_Precipitation_Accumulation
0.02 0.02 0.02 0.02 0.05 0.05 0.03 0.07 0.10 0.07 0.08 0.03 0.03 0.05 0.02 0.02 0.01 0.01 0.01 0.01 0.03 0.04 0.05 0.06 0.04 0.02 0.01 0.00 0.00 0.00 0.00 0.00 0.00 0.03 0.04 0.05 0.07 0.04 0.10 0.07 0.05 0.03 0.01 0.00 0.00 0.00 0.00 0.00 0.00 0.00 0.00 0.00
0.03 0.03 0.03 0.03 0.02 0.03 0.02 0.04 0.06 0.06 0.04 0.03 0.04 0.03 0.01 0.01 0.01 0.00 0.00 0.01 0.03 0.02 0.04 0.06 0.05 0.06 0.03 0.02 0.01 0.00 0.00 0.00 0.00 0.01 0.03 0.02 0.04 0.06 0.04 0.07 0.07 0.04 0.01 0.00 0.00 0.00 0.00 0.00 0.00 0.00 0.00 0.00
0.04 0.02 0.03 0.04 0.08 0.07 0.07 0.08 0.06 0.02 0.10 0.08 0.00 0.00 0.01 0.00 0.01 0.00 0.00 0.00 0.01 0.03 0.03 0.03 0.02 0.04 0.04 0.02 0.03 0.01 0.00 0.00 0.00 0.01 0.04 0.03 0.05 0.05 0.05 0.04 0.06 0.07 0.04 0.01 0.00 0.00 0.00 0.00 0.00 0.00 0.00 0.00
0.01 0.01 0.01 0.01 0.02 0.04 0.04 0.03 0.03 0.02 0.01 0.00 0.00 0.00 0.00 0.00 0.01 0.01 0.00 0.00 0.00 0.00 0.00 0.01 0.02 0.01 0.07 0.03 0.07 0.03 0.01 0.00 0.00 0.00 0.03 0.03 0.05 0.04 0.06 0.06 0.10 0.11 0.06 0.04 0.00 0.00 0.00 0.00 0.00 0.00 0.00 0.00
0.03 0.02 0.02 0.03 0.02 0.01 0.02 0.03 0.03 0.02 0.09 0.02 0.01 0.01 0.00 0.00 0.00 0.00 0.01 0.01 0.00 0.00 0.01 0.00 0.03 0.01 0.09 0.06 0.03 0.05 0.01 0.01 0.00 0.00 0.02 0.03 0.01 0.04 0.06 0.06 0.11 0.13 0.13 0.06 0.00 0.00 0.00 0.00 0.00 0.00 0.00 0.00
0.00 0.01 0.01 0.03 0.03 0.03 0.02 0.02 0.07 0.07 0.12 0.09 0.09 0.14 0.03 0.00 0.00 0.00 0.01 0.00 0.01 0.00 0.01 0.02 0.00 0.02 0.00 0.04 0.07 0.05 0.11 0.02 0.00 0.00 0.02 0.04 0.03 0.03 0.04 0.05 0.05 0.05 0.05 0.07 0.00 0.00 0.00 0.00 0.00 0.00 0.00 0.00
0.00 0.00 0.00 0.00 0.02 0.02 0.02 0.05 0.02 0.14 0.12 0.16 0.13 0.10 0.09 0.05 0.01 0.00 0.00 0.01 0.00 0.02 0.00 0.01 0.01 0.01 0.02 0.06 0.06 0.07 0.03 0.04 0.02 0.01 0.00 0.04 0.03 0.03 0.02 0.06 0.04 0.08 0.04 0.02 0.01 0.00 0.00 0.00 0.00 0.00 0.00 0.00
0.00 0.00 0.00 0.00 0.01 0.02 0.02 0.02 0.03 0.05 0.07 0.17 0.07 0.18 0.10 0.12 0.10 0.05 0.03 0.01 0.01 0.01 0.03 0.00 0.00 0.02 0.01 0.01 0.01 0.02 0.04 0.03 0.04 0.05 0.01 0.00 0.00 0.01 0.03 0.04 0.04 0.01 0.03 0.05 0.01 0.00 0.00 0.00 0.00 0.00 0.00 0.00
0.00 0.00 0.00 0.00 0.00 0.01 0.01 0.02 0.01 0.02 0.02 0.02 0.05 0.07 0.11 0.09 0.12 0.06 0.06 0.03 0.01 0.01 0.01 0.04 0.02 0.06 0.03 0.04 0.02 0.01 0.09 0.09 0.05 0.05 0.02 0.02 0.00 0.00 0.01 0.02 0.01 0.01 0.02 0.03 0.00 0.00 0.00 0.00 0.00 0.00 0.00 0.00
0.00 0.00 0.00 0.00 0.00 0.00 0.01 0.02 0.01 0.03 0.02 0.02 0.02 0.03 0.03 0.18 0.06 0.09 0.05 0.07 0.03 0.00 0.01 0.02 0.05 0.01 0.05 0.08 0.04 0.23 0.08 0.04 0.06 0.09 0.04 0.04 0.05 0.00 0.00 0.00 0.00 0.01 0.01 0.00 0.00 0.00 0.00 0.00 0.00 0.00 0.00 0.00
0.00 0.00 0.00 0.00 0.00 0.00 0.00 0.01 0.01 0.01 0.02 0.03 0.04 0.18 0.14 0.05 0.14 0.26 0.09 0.11 0.15 0.11 0.08 0.04 0.04 0.05 0.08 0.06 0.04 0.06 0.08 0.04 0.13 0.04 0.04 0.01 0.01 0.01 0.01 0.01 0.00 0.00 0.00 0.00 0.00 0.00 0.00 0.00 0.00 0.00 0.00 0.00
0.00 0.00 0.00 0.00 0.00 0.00 0.00 0.01 0.01 0.00 0.02 0.02 0.04 0.06 0.09 0.08 0.06 0.09 0.06 0.18 0.10 0.11 0.26 0.11 0.20 0.12 0.05 0.01 0.06 0.04 0.02 0.04 0.02 0.11 0.06 0.04 0.01 0.00 0.06 0.00 0.00 0.00 0.00 0.00 0.00 0.00 0.00 0.00 0.00 0.00 0.00 0.00
0.00 0.00 0.00 0.00 0.00 0.00 0.00 0.00 0.00 0.01 0.01 0.03 0.05 0.03 0.05 0.07 0.09 0.15 0.17 0.12 0.06 0.20 0.14 0.05 0.05 0.11 0.09 0.04 0.11 0.19 0.03 0.01 0.01 0.04 0.06 0.02 0.01 0.04 0.00 0.02 0.01 0.00 0.00 0.00 0.00 0.00 0.00 0.00 0.00 0.00 0.00 0.00
0.00 0.00 0.00 0.00 0.00 0.00 0.00 0.00 0.00 0.00 0.00 0.00 0.00 0.04 0.20 0.09 0.17 0.08 0.23 0.23 0.18 0.18 0.31 0.11 0.16 0.21 0.17 0.16 0.10 0.05 0.04 0.04 0.03 0.03 0.01 0.04 0.01 0.03 0.00 0.00 0.03 0.01 0.00 0.00 0.00 0.00 0.00 0.00 0.00 0.00 0.00 0.00
0.00 0.00 0.00 0.00 0.00 0.00 0.00 0.00 0.00 0.00 0.00 0.00 0.00 0.00 0.02 0.08 0.15 0.21 0.16 0.28 0.14 0.20 0.09 0.13 0.08 0.09 0.14 0.21 0.06 0.29 0.05 0.11 0.08 0.05 0.04 0.03 0.04 0.09 0.01 0.01 0.01 0.00 0.00 0.00 0.00 0.00 0.00 0.00 0.00 0.00 0.00 0.00
0.00 0.00 0.00 0.00 0.00 0.00 0.00 0.00 0.00 0.00 0.00 0.00 0.00 0.00 0.00 0.00 0.04 0.05 0.20 0.29 0.18 0.23 0.24 0.26 0.19 0.15 0.13 0.10 0.14 0.11 0.08 0.06 0.03 0.08 0.20 0.17 0.06 0.06 0.03 0.01 0.00 0.00 0.01 0.00 0.00 0.00 0.00 0.00 0.00 0.00 0.00 0.00
0.00 0.00 0.00 0.00 0.00 0.00 0.00 0.00 0.00 0.00 0.00 0.00 0.00 0.00 0.00 0.00 0.00 0.00 0.01 0.03 0.18 0.20 0.22 0.22 0.27 0.25 0.16 0.14 0.20 0.22 0.15 0.22 0.24 0.18 0.06 0.06 0.07 0.13 0.08 0.12 0.03 0.05 0.02 0.00 0.00 0.00 0.00 0.00 0.00 0.00 0.00 0.00
0.00 0.00 0.00 0.00 0.00 0.00 0.00 0.00 0.00 0.00 0.00 0.00 0.00 0.00 0.00 0.00 0.00 0.00 0.00 0.00 0.02 0.08 0.15 0.27 0.22 0.27 0.21 0.18 0.24 0.22 0.12 0.20 0.21 0.24 0.18 0.22 0.11 0.12 0.15 0.11 0.07 0.03 0.02 0.01 0.01 0.00 0.00 0.00 0.00 0.00 0.00 0.00
0.00 0.00 0.00 0.00 0.00 0.00 0.00 0.00 0.00 0.00 0.00 0.00 0.00 0.00 0.00 0.00 0.00 0.00 0.00 0.00 0.00 0.01 0.03 0.08 0.18 0.18 0.24 0.22 0.17 0.17 0.18 0.19 0.16 0.33 0.24 0.37 0.16 0.15 0.13 0.10 0.09 0.09 0.09 0.07 0.01 0.01 0.00 0.00 0.00 0.00 0.00 0.00
0.00 0.00 0.00 0.00 0.00 0.00 0.00 0.00 0.00 0.00 0.00 0.00 0.00 0.00 0.00 0.00 0.00 0.00 0.00 0.00 0.00 0.00 0.01 0.01 0.07 0.08 0.14 0.25 0.18 0.22 0.22 0.25 0.20 0.17 0.28 0.24 0.22 0.22 0.18 0.17 0.14 0.12 0.08 0.05 0.03 0.02 0.01 0.00 0.00 0.00 0.00 0.00
0.00 0.00 0.00 0.00 0.00 0.00 0.00 0.00 0.00 0.00 0.00 0.00 0.00 0.00 0.00 0.00 0.00 0.00 0.00 0.00 0.00 0.00 0.00 0.01 0.01 0.03 0.05 0.09 0.17 0.21 0.19 0.13 0.21 0.18 0.20 0.24 0.33 0.23 0.29 0.24 0.18 0.13 0.11 0.09 0.06 0.03 0.02 0.02 0.01 0.00 0.00 0.00
0.00 0.00 0.00 0.00 0.00 0.00 0.00 0.00 0.00 0.00 0.00 0.00 0.00 0.00 0.00 0.00 0.00 0.00 0.00 0.00 0.00 0.00 0.00 0.00 0.00 0.00 0.02 0.05 0.10 0.14 0.17 0.16 0.12 0.14 0.17 0.19 0.23 0.25 0.20 0.24 0.23 0.24 0.15 0.10 0.08 0.06 0.03 0.02 0.02 0.01 0.00 0.00
0.00 0.00 0.00 0.00 0.00 0.00 0.00 0.00 0.00 0.00 0.00 0.00 0.00 0.00 0.00 0.00 0.00 0.00 0.00 0.00 0.00 0.00 0.00 0.00 0.00 0.00 0.00 0.02 0.07 0.11 0.13 0.16 0.16 0.12 0.10 0.13 0.13 0.19 0.26 0.23 0.18 0.17 0.16 0.16 0.15 0.09 0.06 0.04 0.02 0.01 0.01 0.00
0.00 0.00 0.00 0.00 0.00 0.00 0.00 0.00 0.00 0.01 0.00 0.00 0.00 0.00 0.00 0.00 0.00 0.00 0.00 0.00 0.00 0.00 0.00 0.00 0.00 0.00 0.00 0.01 0.04 0.09 0.13 0.13 0.15 0.17 0.16 0.12 0.10 0.12 0.16 0.22 0.23 0.21 0.21 0.21 0.20 0.17 0.13 0.10 0.06 0.04 0.03 0.01
0.01 0.01 0.01 0.00 0.00 0.00 0.00 0.01 0.01 0.00 0.01 0.01 0.00 0.00 0.01 0.01 0.00 0.00 0.00 0.00 0.00 0.00 0.00 0.00 0.00 0.00 0.01 0.01 0.02 0.07 0.11 0.14 0.16 0.17 0.18 0.18 0.17 0.17 0.15 0.15 0.17 0.21 0.24 0.27 0.30 0.27 0.23 0.16 0.13 0.10 0.07 0.05
0.03 0.04 0.08 0.04 0.06 0.06 0.04 0.03 0.02 0.01 0.00 0.02 0.01 0.02 0.01 0.01 0.01 0.02 0.02 0.01 0.02 0.03 0.01 0.01 0.01 0.02 0.02 0.19 0.01 0.03 0.07 0.10 0.14 0.18 0.21 0.22 0.24 0.23 0.21 0.18 0.13 0.15 0.25 0.50 0.39 0.30 0.25 0.18 0.14 0.12 0.12 0.11
0.00 0.00 0.01 0.03 0.08 0.13 0.12 0.23 0.16 0.11 0.11 0.06 0.06 0.03 0.02 0.02 0.02 0.02 0.03 0.03 0.06 0.07 0.05 0.11 0.08 0.07 0.10 0.06 0.03 0.03 0.05 0.08 0.11 0.13 0.16 0.19 0.21 0.23 0.21 0.19 0.16 0.22 0.23 0.30 0.31 0.25 0.23 0.23 0.17 0.13 0.11 0.10
0.00 0.00 0.01 0.00 0.00 0.00 0.01 0.03 0.06 0.13 0.08 0.15 0.13 0.07 0.07 0.08 0.15 0.13 0.07 0.06 0.03 0.04 0.05 0.04 0.10 0.09 0.04 0.04 0.03 0.05 0.06 0.06 0.08 0.11 0.13 0.15 0.17 0.19 0.19 0.19 0.20 0.16 0.18 0.21 0.25 0.33 0.38 0.41 0.27 0.20 0.11 0.05
0.00 0.00 0.01 0.01 0.00 0.01 0.01 0.01 0.00 0.01 0.02 0.05 0.08 0.07 0.13 0.09 0.07 0.11 0.07 0.03 0.05 0.04 0.11 0.07 0.04 0.07 0.11 0.07 0.05 0.06 0.06 0.06 0.06 0.06 0.10 0.12 0.14 0.16 0.19 0.19 0.14 0.13 0.14 0.15 0.19 0.35 0.31 0.40 0.37 0.31 0.26 0.11
0.00 0.00 0.01 0.00 0.01 0.01 0.00 0.00 0.00 0.01 0.00 0.00 0.00 0.01 0.02 0.03 0.03 0.03 0.03 0.04 0.04 0.03 0.03 0.04 0.07 0.07 0.03 0.04 0.06 0.05 0.05 0.05 0.06 0.08 0.07 0.08 0.11 0.15 0.15 0.17 0.18 0.16 0.11 0.12 0.15 0.23 0.35 0.37 0.27 0.18 0.10 0.11
0.00 0.00 0.00 0.01 0.01 0.01 0.01 0.00 0.00 0.00 0.00 0.00 0.01 0.00 0.00 0.01 0.01 0.02 0.04 0.02 0.02 0.04 0.05 0.05 0.08 0.06 0.06 0.07 0.07 0.06 0.06 0.06 0.06 0.05 0.22 0.24 0.13 0.13 0.14 0.15 0.18 0.18 0.15 0.10 0.12 0.18 0.23 0.22 0.25 0.22 0.14 0.10

ECMWFFLT2_prec_precacc_027.txt.gz
Total_Precipitation_Accumulation
0.02 0.02 0.02 0.02 0.06 0.06 0.05 0.09 0.19 0.17 0.17 0.25 0.19 0.09 0.03 0.02 0.01 0.01 0.01 0.01 0.03 0.05 0.06 0.08 0.08 0.05 0.02 0.01 0.01 0.00 0.01 0.00 0.00 0.03 0.04 0.06 0.08 0.06 0.13 0.13 0.13 0.20 0.02 0.00 0.00 0.00 0.00 0.00 0.00 0.00 0.00 0.00
0.03 0.03 0.03 0.03 0.02 0.04 0.03 0.05 0.07 0.06 0.06 0.06 0.08 0.05 0.04 0.05 0.03 0.00 0.00 0.01 0.03 0.02 0.05 0.07 0.07 0.10 0.09 0.12 0.03 0.02 0.01 0.01 0.01 0.01 0.04 0.03 0.04 0.06 0.05 0.10 0.20 0.20 0.05 0.00 0.00 0.00 0.00 0.00 0.00 0.00 0.00 0.00
0.04 0.02 0.03 0.04 0.08 0.07 0.07 0.08 0.06 0.02 0.10 0.08 0.01 0.01 0.01 0.01 0.03 0.01 0.00 0.00 0.01 0.03 0.03 0.03 0.03 0.07 0.07 0.06 0.09 0.11 0.03 0.02 0.00 0.02 0.05 0.04 0.05 0.09 0.05 0.06 0.09 0.16 0.11 0.01 0.00 0.00 0.00 0.00 0.00 0.00 0.00 0.00
0.01 0.01 0.01 0.01 0.02 0.04 0.04 0.03 0.03 0.02 0.01 0.00 0.00 0.00 0.00 0.00 0.01 0.02 0.03 0.01 0.00 0.00 0.00 0.01 0.02 0.02 0.09 0.04 0.12 0.11 0.07 0.03 0.01 0.02 0.04 0.06 0.05 0.05 0.07 0.06 0.16 0.29 0.16 0.15 0.00 0.00 0.00 0.00 0.00 0.00 0.00 0.00
0.03 0.02 0.02 0.03 0.02 0.01 0.02 0.03 0.03 0.02 0.09 0.02 0.01 0.01 0.00 0.00 0.00 0.00 0.01 0.01 0.00 0.01 0.01 0.00 0.03 0.01 0.09 0.07 0.05 0.06 0.06 0.07 0.02 0.03 0.04 0.04 0.04 0.06 0.09 0.06 0.11 0.16 0.24 0.21 0.01 0.00 0.00 0.00 0.00 0.00 0.00 0.00
0.00 0.01 0.01 0.03 0.03 0.03 0.02 0.02 0.07 0.07 0.12 0.09 0.09 0.14 0.03 0.00 0.00 0.00 0.01 0.00 0.01 0.00 0.01 0.02 0.00 0.02 0.01 0.05 0.07 0.06 0.12 0.04 0.06 0.02 0.03 0.06 0.05 0.04 0.08 0.09 0.05 0.06 0.15 0.27 0.02 0.00 0.00 0.00 0.00 0.00 0.00 0.00
0.00 0.00 0.00 0.00 0.02 0.02 0.02 0.05 0.02 0.14 0.12 0.16 0.13 0.10 0.09 0.05 0.01 0.00 0.00 0.01 0.00 0.02 0.00 0.01 0.01 0.01 0.02 0.06 0.07 0.08 0.04 0.11 0.08 0.03 0.02 0.05 0.03 0.05 0.04 0.13 0.05 0.08 0.04 0.11 0.04 0.01 0.00 0.00 0.00 0.00 0.00 0.00
0.00 0.00 0.00 0.00 0.01 0.02 0.02 0.02 0.03 0.05 0.07 0.17 0.07 0.18 0.10 0.13 0.11 0.06 0.03 0.01 0.01 0.01 0.03 0.00 0.00 0.02 0.01 0.01 0.01 0.02 0.05 0.03 0.04 0.09 0.04 0.06 0.03 0.02 0.04 0.08 0.06 0.01 0.04 0.07 0.03 0.00 0.00 0.00 0.00 0.00 0.00 0.00
0.00 0.00 0.00 0.00 0.00 0.01 0.01 0.02 0.01 0.02 0.02 0.02 0.05 0.07 0.11 0.09 0.13 0.07 0.07 0.04 0.01 0.01 0.01 0.04 0.02 0.06 0.03 0.04 0.02 0.01 0.09 0.09 0.06 0.05 0.14 0.05 0.05 0.04 0.03 0.04 0.05 0.02 0.02 0.03 0.02 0.00 0.00 0.00 0.00 0.00 0.00 0.00
0.00 0.00 0.00 0.00 0.00 0.00 0.01 0.02 0.01 0.03 0.02 0.02 0.02 0.03 0.03 0.18 0.06 0.09 0.06 0.07 0.03 0.01 0.01 0.02 0.05 0.01 0.05 0.08 0.04 0.23 0.08 0.04 0.06 0.15 0.09 0.16 0.13 0.06 0.01 0.02 0.01 0.02 0.02 0.00 0.00 0.00 0.00 0.00 0.00 0.00 0.00 0.00
0.00 0.00 0.00 0.00 0.00 0.00 0.00 0.01 0.01 0.01 0.02 0.03 0.04 0.18 0.14 0.05 0.14 0.26 0.09 0.11 0.16 0.11 0.08 0.04 0.05 0.05 0.08 0.06 0.04 0.06 0.08 0.04 0.13 0.04 0.07 0.03 0.05 0.06 0.05 0.02 0.01 0.02 0.02 0.01 0.00 0.00 0.00 0.00 0.01 0.00 0.00 0.00
0.00 0.00 0.00 0.00 0.00 0.00 0.00 0.01 0.01 0.00 0.02 0.02 0.04 0.06 0.09 0.08 0.06 0.09 0.06 0.18 0.10 0.11 0.26 0.11 0.20 0.12 0.05 0.01 0.06 0.04 0.02 0.04 0.02 0.11 0.07 0.05 0.02 0.02 0.10 0.07 0.04 0.02 0.02 0.03 0.00 0.00 0.00 0.00 0.03 0.00 0.01 0.00
0.00 0.00 0.00 0.00 0.00 0.00 0.00 0.00 0.00 0.01 0.01 0.03 0.05 0.03 0.05 0.07 0.09 0.15 0.17 0.12 0.06 0.20 0.14 0.05 0.05 0.11 0.09 0.04 0.11 0.19 0.03 0.01 0.01 0.04 0.06 0.03 0.04 0.07 0.03 0.05 0.06 0.04 0.02 0.01 0.00 0.00 0.00 0.00 0.00 0.00 0.00 0.00
0.00 0.00 0.00 0.00 0.00 0.00 0.00 0.00 0.00 0.00 0.00 0.00 0.00 0.04 0.20 0.09 0.17 0.08 0.23 0.23 0.18 0.18 0.31 0.11 0.16 0.21 0.17 0.16 0.10 0.05 0.04 0.04 0.03 0.03 0.01 0.04 0.02 0.05 0.04 0.04 0.06 0.07 0.03 0.01 0.00 0.00 0.00 0.00 0.00 0.00 0.00 0.00
0.00 0.00 0.00 0.00 0.00 0.00 0.00 0.00 0.00 0.00 0.00 0.00 0.00 0.00 0.02 0.08 0.15 0.21 0.16 0.28 0.14 0.20 0.09 0.13 0.08 0.09 0.14 0.21 0.06 0.29 0.05 0.11 0.08 0.05 0.04 0.03 0.04 0.09 0.02 0.02 0.04 0.04 0.04 0.03 0.00 0.00 0.00 0.00 0.00 0.00 0.00 0.00
0.00 0.00 0.00 0.00 0.00 0.00 0.00 0.00 0.00 0.00 0.00 0.00 0.00 0.00 0.00 0.00 0.04 0.05 0.20 0.29 0.18 0.23 0.24 0.26 0.19 0.15 0.13 0.10 0.14 0.11 0.08 0.06 0.03 0.08 0.20 0.17 0.06 0.06 0.04 0.02 0.01 0.01 0.02 0.04 0.02 0.01 0.00 0.00 0.00 0.00 0.00 0.00
0.00 0.00 0.00 0.00 0.00 0.00 0.00 0.00 0.00 0.00 0.00 0.00 0.00 0.00 0.00 0.00 0.00 0.00 0.01 0.03 0.18 0.20 0.22 0.22 0.27 0.25 0.16 0.14 0.20 0.22 0.15 0.22 0.24 0.18 0.06 0.06 0.07 0.13 0.09 0.13 0.05 0.07 0.05 0.02 0.02 0.02 0.01 0.00 0.00 0.00 0.00 0.00
0.00 0.00 0.00 0.00 0.00 0.00 0.00 0.00 0.00 0.00 0.00 0.00 0.00 0.00 0.00 0.00 0.00 0.00 0.00 0.00 0.02 0.08 0.15 0.27 0.22 0.27 0.21 0.18 0.24 0.22 0.12 0.20 0.21 0.24 0.18 0.22 0.11 0.12 0.16 0.12 0.08 0.06 0.05 0.04 0.03 0.02 0.01 0.01 0.01 0.00 0.00 0.00
0.00 0.00 0.00 0.00 0.00 0.00 0.00 0.00 0.00 0.00 0.00 0.00 0.00 0.00 0.00 0.00 0.00 0.00 0.00 0.00 0.00 0.01 0.03 0.08 0.18 0.18 0.24 0.22 0.17 0.17 0.18 0.19 0.16 0.33 0.24 0.37 0.16 0.15 0.13 0.10 0.09 0.11 0.13 0.11 0.05 0.03 0.02 0.01 0.00 0.02 0.00 0.00
0.00 0.00 0.00 0.00 0.00 0.00 0.00 0.00 0.00 0.00 0.00 0.00 0.00 0.00 0.00 0.00 0.00 0.00 0.00 0.00 0.00 0.00 0.01 0.01 0.07 0.08 0.14 0.25 0.18 0.22 0.22 0.25 0.20 0.17 0.28 0.24 0.22 0.22 0.18 0.17 0.14 0.12 0.10 0.09 0.10 0.07 0.04 0.02 0.01 0.01 0.00 0.00
0.00 0.00 0.00 0.00 0.00 0.00 0.00 0.00 0.00 0.00 0.00 0.00 0.00 0.00 0.00 0.00 0.00 0.00 0.00 0.00 0.00 0.00 0.00 0.01 0.01 0.03 0.05 0.09 0.17 0.21 0.19 0.13 0.21 0.18 0.20 0.24 0.33 0.23 0.29 0.24 0.18 0.13 0.11 0.10 0.08 0.07 0.09 0.07 0.04 0.02 0.00 0.00
0.00 0.00 0.00 0.00 0.00 0.00 0.00 0.00 0.00 0.00 0.00 0.00 0.00 0.00 0.00 0.00 0.00 0.00 0.00 0.00 0.00 0.00 0.00 0.00 0.00 0.00 0.02 0.05 0.10 0.14 0.17 0.16 0.12 0.14 0.17 0.19 0.23 0.25 0.20 0.24 0.23 0.24 0.16 0.11 0.09 0.08 0.06 0.05 0.07 0.06 0.03 0.00
0.00 0.00 0.00 0.00 0.00 0.00 0.00 0.00 0.00 0.00 0.00 0.00 0.00 0.00 0.00 0.00 0.00 0.00 0.00 0.00 0.00 0.00 0.00 0.00 0.00 0.00 0.00 0.02 0.07 0.11 0.13 0.16 0.16 0.12 0.10 0.13 0.13 0.19 0.26 0.23 0.18 0.17 0.16 0.16 0.16 0.11 0.08 0.06 0.04 0.04 0.05 0.04
0.00 0.00 0.00 0.00 0.00 0.00 0.00 0.00 0.00 0.01 0.00 0.00 0.00 0.00 0.00 0.00 0.00 0.00 0.00 0.00 0.00 0.00 0.00 0.00 0.00 0.00 0.00 0.01 0.04 0.09 0.13 0.13 0.15 0.17 0.16 0.12 0.10 0.12 0.16 0.22 0.23 0.21 0.21 0.21 0.20 0.19 0.15 0.12 0.08 0.06 0.05 0.04
0.01 0.01 0.01 0.00 0.00 0.00 0.00 0.01 0.01 0.00 0.01 0.01 0.00 0.00 0.01 0.01 0.00 0.00 0.00 0.00 0.00 0.00 0.00 0.00 0.00 0.00 0.01 0.01 0.02 0.07 0.11 0.14 0.16 0.17 0.18 0.18 0.17 0.17 0.15 0.15 0.17 0.21 0.24 0.27 0.30 0.28 0.24 0.19 0.15 0.13 0.10 0.08
0.03 0.04 0.08 0.04 0.06 0.06 0.04 0.03 0.02 0.01 0.00 0.02 0.01 0.02 0.01 0.01 0.01 0.02 0.02 0.01 0.02 0.03 0.01 0.01 0.01 0.02 0.02 0.19 0.01 0.03 0.07 0.10 0.14 0.18 0.21 0.22 0.24 0.23 0.21 0.18 0.13 0.15 0.25 0.50 0.39 0.30 0.25 0.19 0.17 0.17 0.15 0.14
0.00 0.00 0.01 0.03 0.08 0.13 0.12 0.23 0.16 0.11 0.11 0.06 0.06 0.03 0.02 0.02 0.02 0.02 0.03 0.03 0.06 0.07 0.05 0.11 0.08 0.07 0.10 0.06 0.03 0.03 0.05 0.08 0.11 0.13 0.16 0.19 0.21 0.23 0.21 0.19 0.16 0.22 0.23 0.30 0.31 0.25 0.24 0.23 0.18 0.15 0.15 0.14
0.00 0.00 0.01 0.00 0.00 0.00 0.01 0.03 0.06 0.13 0.08 0.15 0.13 0.07 0.07 0.08 0.15 0.13 0.07 0.06 0.03 0.04 0.05 0.04 0.10 0.09 0.04 0.04 0.03 0.05 0.06 0.06 0.08 0.11 0.13 0.15 0.17 0.19 0.19 0.19 0.20 0.16 0.18 0.21 0.25 0.33 0.38 0.41 0.27 0.20 0.12 0.07
0.00 0.00 0.01 0.01 0.00 0.01 0.01 0.01 0.00 0.01 0.02 0.05 0.08 0.07 0.13 0.09 0.07 0.11 0.07 0.03 0.05 0.04 0.11 0.07 0.04 0.07 0.11 0.07 0.05 0.06 0.06 0.06 0.06 0.06 0.10 0.12 0.14 0.16 0.19 0.19 0.14 0.13 0.14 0.15 0.19 0.35 0.32 0.40 0.38 0.32 0.26 0.12
0.00 0.00 0.01 0.00 0.01 0.01 0.00 0.00 0.00 0.01 0.00 0.00 0.00 0.01 0.02 0.03 0.03 0.03 0.03 0.04 0.04 0.03 0.03 0.04 0.07 0.07 0.03 0.04 0.06 0.05 0.05 0.05 0.06 0.08 0.07 0.08 0.11 0.15 0.15 0.17 0.18 0.16 0.11 0.12 0.15 0.23 0.35 0.37 0.28 0.20 0.11 0.11
0.00 0.00 0.00 0.01 0.01 0.01 0.01 0.00 0.00 0.00 0.00 0.00 0.01 0.00 0.00 0.01 0.01 0.02 0.04 0.02 0.02 0.04 0.05 0.05 0.08 0.06 0.06 0.07 0.07 0.06 0.06 0.06 0.06 0.05 0.22 0.24 0.13 0.13 0.14 0.15 0.18 0.18 0.15 0.10 0.12 0.18 0.23 0.22 0.25 0.22 0.15 0.11

ECMWFFLT2_prec_precacc_030.txt.gz
Total_Precipitation_Accumulation
0.02 0.02 0.02 0.02 0.06 0.06 0.05 0.09 0.19 0.17 0.18 0.29 0.23 0.13 0.07 0.03 0.01 0.01 0.01 0.01 0.03 0.05 0.06 0.10 0.10 0.08 0.04 0.02 0.02 0.02 0.06 0.04 0.04 0.05 0.07 0.07 0.09 0.08 0.16 0.14 0.14 0.24 0.05 0.01 0.00 0.00 0.00 0.00 0.00 0.00 0.00 0.00
0.03 0.03 0.03 0.03 0.02 0.04 0.03 0.05 0.07 0.06 0.06 0.07 0.08 0.09 0.11 0.14 0.07 0.01 0.00 0.01 0.03 0.02 0.05 0.07 0.11 0.13 0.12 0.17 0.07 0.03 0.04 0.02 0.05 0.08 0.07 0.05 0.05 0.08 0.07 0.13 0.22 0.23 0.10 0.01 0.00 0.00 0.00 0.00 0.00 0.00 0.00 0.00
0.04 0.02 0.03 0.04 0.08 0.07 0.07 0.08 0.06 0.02 0.10 0.08 0.01 0.01 0.03 0.05 0.07 0.06 0.02 0.00 0.01 0.03 0.03 0.03 0.04 0.10 0.09 0.08 0.13 0.15 0.03 0.02 0.02 0.04 0.08 0.06 0.06 0.11 0.07 0.08 0.11 0.16 0.12 0.03 0.00 0.00 0.00 0.00 0.00 0.00 0.00 0.00
0.01 0.01 0.01 0.01 0.02 0.04 0.04 0.03 0.03 0.02 0.01 0.00 0.00 0.00 0.00 0.04 0.07 0.05 0.06 0.03 0.00 0.00 0.00 0.01 0.02 0.02 0.10 0.07 0.16 0.15 0.10 0.05 0.02 0.02 0.05 0.12 0.08 0.07 0.13 0.12 0.19 0.30 0.17 0.17 0.01 0.00 0.00 0.00 0.00 0.00 0.00 0.00
0.03 0.02 0.02 0.03 0.02 0.01 0.02 0.03 0.03 0.02 0.09 0.02 0.01 0.01 0.00 0.01 0.01 0.02 0.02 0.02 0.01 0.01 0.01 0.00 0.03 0.01 0.10 0.08 0.05 0.07 0.11 0.18 0.10 0.05 0.04 0.06 0.04 0.06 0.11 0.10 0.23 0.20 0.27 0.24 0.01 0.00 0.00 0.00 0.00 0.00 0.00 0.00
0.00 0.01 0.01 0.03 0.03 0.03 0.02 0.02 0.07 0.07 0.12 0.09 0.09 0.14 0.03 0.01 0.00 0.02 0.01 0.01 0.01 0.00 0.01 0.02 0.00 0.02 0.01 0.05 0.07 0.06 0.14 0.07 0.14 0.07 0.05 0.06 0.06 0.04 0.08 0.12 0.16 0.27 0.19 0.34 0.09 0.02 0.00 0.00 0.00 0.00 0.00 0.00
0.00 0.00 0.00 0.00 0.02 0.02 0.02 0.05 0.02 0.14 0.12 0.16 0.13 0.11 0.10 0.06 0.02 0.01 0.01 0.01 0.00 0.02 0.00 0.01 0.01 0.01 0.02 0.06 0.07 0.08 0.04 0.11 0.09 0.10 0.07 0.12 0.05 0.05 0.04 0.13 0.08 0.31 0.06 0.12 0.04 0.02 0.00 0.00 0.00 0.00 0.00 0.00
0.00 0.00 0.00 0.00 0.01 0.02 0.02 0.02 0.03 0.05 0.07 0.17 0.07 0.18 0.11 0.13 0.11 0.06 0.03 0.01 0.01 0.01 0.03 0.01 0.01 0.02 0.01 0.01 0.01 0.02 0.05 0.03 0.04 0.09 0.05 0.12 0.09 0.04 0.04 0.08 0.07 0.06 0.40 0.08 0.03 0.00 0.00 0.00 0.00 0.00 0.00 0.00
0.00 0.00 0.00 0.00 0.00 0.01 0.01 0.02 0.01 0.02 0.02 0.02 0.05 0.07 0.11 0.09 0.13 0.07 0.07 0.04 0.01 0.01 0.02 0.05 0.03 0.07 0.04 0.04 0.02 0.01 0.09 0.09 0.06 0.05 0.14 0.05 0.07 0.08 0.07 0.04 0.05 0.05 0.18 0.12 0.02 0.00 0.00 0.00 0.00 0.00 0.00 0.00
0.00 0.00 0.00 0.00 0.00 0.00 0.01 0.02 0.01 0.03 0.02 0.02 0.02 0.03 0.03 0.18 0.06 0.09 0.06 0.07 0.03 0.01 0.01 0.02 0.06 0.02 0.06 0.08 0.06 0.23 0.08 0.04 0.06 0.15 0.09 0.16 0.13 0.07 0.02 0.03 0.01 0.02 0.05 0.11 0.06 0.00 0.00 0.00 0.00 0.00 0.00 0.00
0.00 0.00 0.00 0.00 0.00 0.00 0.00 0.01 0.01 0.01 0.02 0.03 0.04 0.18 0.14 0.05 0.14 0.26 0.09 0.11 0.16 0.11 0.08 0.04 0.05 0.05 0.08 0.06 0.04 0.06 0.08 0.04 0.13 0.04 0.07 0.03 0.05 0.06 0.05 0.05 0.03 0.02 0.03 0.03 0.02 0.00 0.00 0.00 0.01 0.00 0.00 0.00
0.00 0.00 0.00 0.00 0.00 0.00 0.00 0.01 0.01 0.00 0.02 0.02 0.04 0.06 0.09 0.08 0.06 0.09 0.06 0.18 0.10 0.11 0.26 0.11 0.20 0.12 0.05 0.01 0.06 0.04 0.02 0.04 0.02 0.11 0.07 0.05 0.02 0.02 0.10 0.07 0.09 0.06 0.04 0.05 0.03 0.00 0.00 0.00 0.03 0.00 0.01 0.00
0.00 0.00 0.00 0.00 0.00 0.00 0.00 0.00 0.00 0.01 0.01 0.03 0.05 0.03 0.05 0.07 0.09 0.15 0.17 0.12 0.06 0.20 0.14 0.05 0.05 0.11 0.09 0.04 0.11 0.19 0.03 0.02 0.01 0.04 0.06 0.03 0.04 0.07 0.03 0.05 0.07 0.09 0.07 0.05 0.04 0.01 0.00 0.00 0.00 0.00 0.00 0.00
0.00 0.00 0.00 0.00 0.00 0.00 0.00 0.00 0.00 0.00 0.00 0.00 0.00 0.04 0.20 0.09 0.17 0.08 0.23 0.23 0.18 0.18 0.31 0.11 0.16 0.21 0.17 0.16 0.10 0.05 0.04 0.04 0.03 0.03 0.01 0.04 0.02 0.05 0.04 0.04 0.06 0.07 0.07 0.07 0.05 0.03 0.01 0.01 0.01 0.00 0.00 0.00
0.00 0.00 0.00 0.00 0.00 0.00 0.00 0.00 0.00 0.00 0.00 0.00 0.00 0.00 0.02 0.08 0.15 0.21 0.16 0.28 0.14 0.20 0.09 0.13 0.08 0.09 0.14 0.21 0.06 0.29 0.05 0.11 0.08 0.05 0.04 0.03 0.04 0.09 0.02 0.02 0.04 0.04 0.04 0.04 0.04 0.05 0.03 0.01 0.01 0.00 0.02 0.04
0.00 0.00 0.00 0.00 0.00 0.00 0.00 0.00 0.00 0.00 0.00 0.00 0.00 0.00 0.00 0.00 0.04 0.05 0.20 0.29 0.18 0.23 0.24 0.26 0.19 0.15 0.13 0.10 0.14 0.11 0.08 0.06 0.03 0.08 0.20 0.17 0.06 0.06 0.04 0.02 0.01 0.01 0.02 0.04 0.03 0.03 0.02 0.03 0.01 0.00 0.05 0.02
0.00 0.00 0.00 0.00 0.00 0.00 0.00 0.00 0.00 0.00 0.00 0.00 0.00 0.00 0.00 0.00 0.00 0.00 0.01 0.03 0.18 0.20 0.22 0.22 0.27 0.25 0.16 0.14 0.20 0.22 0.15 0.22 0.24 0.18 0.06 0.06 0.07 0.13 0.09 0.13 0.05 0.07 0.05 0.02 0.02 0.02 0.01 0.01 0.01 0.00 0.00 0.00
0.00 0.00 0.00 0.00 0.00 0.00 0.00 0.00 0.00 0.00 0.00 0.00 0.00 0.00 0.00 0.00 0.00 0.00 0.00 0.00 0.02 0.08 0.15 0.27 0.22 0.27 0.21 0.18 0.24 0.22 0.12 0.20 0.21 0.24 0.18 0.22 0.11 0.12 0.16 0.12 0.08 0.06 0.05 0.04 0.03 0.02 0.02 0.01 0.02 0.02 0.00 0.00
0.00 0.00 0.00 0.00 0.00 0.00 0.00 0.00 0.00 0.00 0.00 0.00 0.00 0.00 0.00 0.00 0.00 0.00 0.00 0.00 0.00 0.01 0.03 0.08 0.18 0.18 0.24 0.22 0.17 0.17 0.18 0.19 0.16 0.33 0.24 0.37 0.16 0.15 0.13 0.10 0.09 0.11 0.13 0.11 0.05 0.03 0.02 0.01 0.01 0.03 0.00 0.00
0.00 0.00 0.00 0.00 0.00 0.00 0.00 0.00 0.00 0.00 0.00 0.00 0.00 0.00 0.00 0.00 0.00 0.00 0.00 0.00 0.00 0.00 0.01 0.01 0.07 0.08 0.14 0.25 0.18 0.22 0.22 0.25 0.20 0.17 0.28 0.24 0.22 0.22 0.18 0.17 0.14 0.12 0.10 0.09 0.10 0.07 0.04 0.02 0.01 0.01 0.00 0.00
0.00 0.00 0.00 0.00 0.00 0.00 0.00 0.00 0.00 0.00 0.00 0.00 0.00 0.00 0.00 0.00 0.00 0.00 0.00 0.00 0.00 0.00 0.00 0.01 0.01 0.03 0.05 0.09 0.17 0.21 0.19 0.13 0.21 0.18 0.20 0.24 0.33 0.23 0.29 0.24 0.18 0.13 0.11 0.10 0.08 0.07 0.09 0.07 0.04 0.02 0.00 0.00
0.00 0.00 0.00 0.00 0.00 0.00 0.00 0.00 0.00 0.00 0.00 0.00 0.00 0.00 0.00 0.00 0.00 0.00 0.00 0.00 0.00 0.00 0.00 0.00 0.00 0.00 0.02 0.05 0.10 0.14 0.17 0.16 0.12 0.14 0.17 0.19 0.23 0.25 0.20 0.24 0.23 0.24 0.16 0.11 0.09 0.08 0.06 0.05 0.07 0.06 0.03 0.01
0.00 0.00 0.00 0.00 0.00 0.00 0.00 0.00 0.00 0.00 0.00 0.00 0.00 0.00 0.00 0.00 0.00 0.00 0.00 0.00 0.00 0.00 0.00 0.00 0.00 0.00 0.00 0.02 0.07 0.11 0.13 0.16 0.16 0.12 0.10 0.13 0.13 0.19 0.26 0.23 0.18 0.17 0.16 0.16 0.16 0.11 0.08 0.06 0.04 0.04 0.05 0.05
0.00 0.00 0.00 0.00 0.00 0.00 0.00 0.00 0.00 0.01 0.00 0.00 0.00 0.00 0.00 0.00 0.00 0.00 0.00 0.00 0.00 0.00 0.00 0.00 0.00 0.00 0.00 0.01 0.04 0.09 0.13 0.13 0.15 0.17 0.16 0.12 0.10 0.12 0.16 0.22 0.23 0.21 0.21 0.21 0.20 0.19 0.15 0.12 0.08 0.06 0.05 0.04
0.01 0.01 0.01 0.00 0.00 0.00 0.00 0.01 0.01 0.00 0.01 0.01 0.00 0.00 0.01 0.01 0.00 0.00 0.00 0.00 0.00 0.00 0.00 0.00 0.00 0.00 0.01 0.01 0.02 0.07 0.11 0.14 0.16 0.17 0.18 0.18 0.17 0.17 0.15 0.15 0.17 0.21 0.24 0.27 0.30 0.28 0.24 0.19 0.15 0.13 0.10 0.08
0.03 0.04 0.08 0.04 0.06 0.06 0.04 0.03 0.02 0.01 0.00 0.02 0.01 0.02 0.01 0.01 0.01 0.02 0.02 0.01 0.02 0.03 0.01 0.01 0.01 0.02 0.02 0.19 0.01 0.03 0.07 0.10 0.14 0.18 0.21 0.22 0.24 0.23 0.21 0.18 0.13 0.15 0.25 0.50 0.39 0.30 0.25 0.19 0.17 0.17 0.15 0.14
0.00 0.00 0.01 0.03 0.08 0.13 0.12 0.23 0.16 0.11 0.11 0.06 0.06 0.03 0.02 0.02 0.02 0.02 0.03 0.03 0.06 0.07 0.05 0.11 0.08 0.07 0.10 0.06 0.03 0.03 0.05 0.08 0.11 0.13 0.16 0.19 0.21 0.23 0.21 0.19 0.16 0.22 0.23 0.30 0.31 0.25 0.24 0.23 0.18 0.15 0.15 0.14
0.00 0.00 0.01 0.00 0.00 0.00 0.01 0.03 0.06 0.13 0.08 0.15 0.13 0.07 0.07 0.08 0.15 0.13 0.07 0.06 0.03 0.04 0.05 0.04 0.10 0.09 0.04 0.04 0.03 0.05 0.06 0.06 0.08 0.11 0.13 0.15 0.17 0.19 0.19 0.19 0.20 0.16 0.18 0.21 0.25 0.33 0.38 0.41 0.27 0.20 0.12 0.07
0.00 0.00 0.01 0.01 0.00 0.01 0.01 0.01 0.00 0.01 0.02 0.05 0.08 0.07 0.13 0.09 0.07 0.11 0.07 0.03 0.05 0.04 0.11 0.07 0.04 0.07 0.11 0.07 0.05 0.07 0.06 0.06 0.06 0.06 0.10 0.13 0.14 0.16 0.19 0.19 0.14 0.13 0.14 0.15 0.19 0.35 0.32 0.40 0.38 0.32 0.26 0.12
0.00 0.00 0.01 0.00 0.01 0.01 0.00 0.00 0.00 0.01 0.00 0.00 0.00 0.01 0.02 0.03 0.03 0.03 0.03 0.04 0.04 0.03 0.03 0.04 0.07 0.07 0.03 0.04 0.06 0.05 0.05 0.05 0.06 0.08 0.07 0.08 0.11 0.15 0.16 0.17 0.18 0.16 0.11 0.12 0.16 0.24 0.35 0.37 0.28 0.21 0.12 0.11
0.00 0.00 0.00 0.01 0.01 0.01 0.01 0.00 0.00 0.00 0.00 0.00 0.01 0.00 0.00 0.01 0.01 0.02 0.04 0.02 0.02 0.04 0.05 0.05 0.08 0.06 0.06 0.07 0.07 0.06 0.06 0.06 0.06 0.05 0.22 0.24 0.13 0.13 0.14 0.15 0.19 0.18 0.15 0.10 0.12 0.19 0.23 0.22 0.25 0.22 0.15 0.11

ECMWFFLT2_prec_precacc_033.txt.gz
Total_Precipitation_Accumulation
0.02 0.02 0.02 0.02 0.06 0.06 0.05 0.09 0.19 0.17 0.19 0.29 0.23 0.16 0.11 0.07 0.04 0.05 0.03 0.04 0.05 0.05 0.09 0.14 0.14 0.12 0.06 0.06 0.08 0.07 0.13 0.08 0.06 0.06 0.09 0.08 0.10 0.12 0.18 0.18 0.16 0.29 0.10 0.01 0.00 0.00 0.00 0.00 0.00 0.00 0.00 0.00
0.03 0.03 0.03 0.03 0.02 0.04 0.03 0.05 0.07 0.06 0.06 0.07 0.12 0.12 0.13 0.18 0.09 0.01 0.09 0.06 0.04 0.02 0.06 0.10 0.15 0.15 0.13 0.18 0.10 0.04 0.04 0.07 0.08 0.10 0.08 0.06 0.06 0.09 0.08 0.14 0.24 0.29 0.17 0.02 0.00 0.00 0.00 0.00 0.00 0.00 0.00 0.00
0.04 0.02 0.03 0.04 0.08 0.07 0.07 0.08 0.06 0.02 0.10 0.08 0.01 0.02 0.03 0.05 0.17 0.12 0.04 0.06 0.06 0.07 0.12 0.03 0.04 0.11 0.09 0.09 0.14 0.16 0.03 0.02 0.04 0.08 0.14 0.10 0.06 0.11 0.08 0.08 0.12 0.19 0.16 0.05 0.00 0.00 0.00 0.00 0.00 0.00 0.00 0.00
0.01 0.01 0.01 0.01 0.02 0.04 0.04 0.03 0.03 0.02 0.01 0.00 0.00 0.00 0.01 0.04 0.07 0.14 0.08 0.09 0.03 0.04 0.01 0.01 0.03 0.02 0.13 0.10 0.18 0.17 0.14 0.06 0.02 0.02 0.05 0.12 0.08 0.07 0.13 0.12 0.20 0.33 0.22 0.20 0.01 0.00 0.00 0.00 0.00 0.00 0.00 0.00
0.03 0.02 0.02 0.03 0.02 0.01 0.02 0.03 0.03 0.02 0.09 0.02 0.01 0.01 0.00 0.01 0.03 0.03 0.03 0.04 0.04 0.07 0.01 0.01 0.03 0.01 0.10 0.09 0.06 0.07 0.12 0.19 0.13 0.05 0.04 0.06 0.04 0.06 0.11 0.10 0.23 0.21 0.31 0.31 0.02 0.00 0.00 0.00 0.00 0.00 0.00 0.00
0.00 0.01 0.01 0.03 0.03 0.03 0.02 0.02 0.07 0.07 0.12 0.09 0.09 0.14 0.03 0.01 0.01 0.02 0.03 0.03 0.02 0.04 0.05 0.05 0.02 0.02 0.01 0.05 0.07 0.06 0.14 0.07 0.15 0.09 0.06 0.06 0.06 0.04 0.08 0.12 0.16 0.28 0.28 0.38 0.12 0.02 0.00 0.00 0.00 0.00 0.00 0.00
0.00 0.00 0.00 0.00 0.02 0.02 0.02 0.05 0.02 0.14 0.12 0.16 0.13 0.11 0.10 0.06 0.02 0.01 0.02 0.03 0.03 0.06 0.03 0.01 0.04 0.02 0.03 0.06 0.07 0.08 0.04 0.11 0.10 0.11 0.07 0.13 0.07 0.05 0.04 0.14 0.08 0.32 0.24 0.29 0.09 0.02 0.01 0.00 0.00 0.00 0.00 0.00
0.00 0.00 0.00 0.00 0.01 0.02 0.02 0.02 0.03 0.05 0.07 0.17 0.07 0.18 0.11 0.13 0.11 0.07 0.05 0.03 0.05 0.10 0.06 0.08 0.03 0.06 0.04 0.03 0.02 0.02 0.05 0.03 0.04 0.09 0.05 0.14 0.10 0.08 0.05 0.08 0.07 0.07 0.47 0.26 0.10 0.01 0.00 0.00 0.00 0.00 0.00 0.00
0.00 0.00 0.00 0.00 0.00 0.01 0.01 0.02 0.01 0.02 0.02 0.02 0.05 0.07 0.11 0.09 0.13 0.07 0.07 0.04 0.02 0.02 0.03 0.08 0.05 0.08 0.05 0.05 0.03 0.02 0.09 0.09 0.06 0.05 0.14 0.06 0.08 0.09 0.10 0.06 0.06 0.05 0.19 0.26 0.17 0.03 0.00 0.00 0.00 0.00 0.00 0.00
0.00 0.00 0.00 0.00 0.00 0.00 0.01 0.02 0.01 0.03 0.02 0.02 0.02 0.03 0.03 0.18 0.06 0.09 0.06 0.07 0.03 0.01 0.01 0.02 0.06 0.03 0.09 0.09 0.08 0.23 0.09 0.04 0.06 0.15 0.09 0.16 0.14 0.10 0.03 0.06 0.02 0.04 0.06 0.13 0.15 0.04 0.00 0.00 0.00 0.00 0.00 0.00
0.00 0.00 0.00 0.00 0.00 0.00 0.00 0.01 0.01 0.01 0.02 0.03 0.04 0.18 0.14 0.05 0.14 0.26 0.09 0.11 0.16 0.11 0.08 0.04 0.05 0.05 0.08 0.06 0.04 0.06 0.11 0.04 0.13 0.04 0.07 0.03 0.05 0.06 0.08 0.08 0.04 0.03 0.04 0.04 0.04 0.06 0.00 0.00 0.01 0.00 0.00 0.00
0.00 0.00 0.00 0.00 0.00 0.00 0.00 0.01 0.01 0.00 0.02 0.02 0.04 0.06 0.09 0.08 0.06 0.09 0.06 0.18 0.10 0.11 0.26 0.11 0.20 0.12 0.05 0.01 0.06 0.04 0.05 0.05 0.02 0.11 0.07 0.05 0.02 0.02 0.10 0.08 0.09 0.08 0.05 0.05 0.04 0.01 0.00 0.00 0.03 0.00 0.01 0.00
0.00 0.00 0.00 0.00 0.00 0.00 0.00 0.00 0.00 0.01 0.01 0.03 0.05 0.03 0.05 0.07 0.09 0.15 0.17 0.12 0.06 0.20 0.14 0.05 0.05 0.11 0.09 0.04 0.11 0.19 0.03 0.02 0.01 0.04 0.06 0.03 0.04 0.07 0.03 0.05 0.07 0.09 0.08 0.07 0.06 0.02 0.00 0.00 0.00 0.00 0.00 0.00
0.00 0.00 0.00 0.00 0.00 0.00 0.00 0.00 0.00 0.00 0.00 0.00 0.00 0.04 0.20 0.09 0.17 0.08 0.23 0.23 0.18 0.18 0.31 0.11 0.16 0.21 0.17 0.16 0.10 0.05 0.04 0.04 0.03 0.03 0.01 0.05 0.02 0.05 0.04 0.04 0.06 0.07 0.07 0.07 0.06 0.05 0.02 0.01 0.01 0.00 0.00 0.00
0.00 0.00 0.00 0.00 0.00 0.00 0.00 0.00 0.00 0.00 0.00 0.00 0.00 0.00 0.02 0.08 0.15 0.21 0.16 0.28 0.14 0.20 0.09 0.13 0.08 0.09 0.14 0.21 0.06 0.29 0.05 0.11 0.08 0.05 0.04 0.03 0.04 0.09 0.02 0.02 0.04 0.04 0.04 0.04 0.04 0.05 0.03 0.01 0.01 0.00 0.07 0.04
0.00 0.00 0.00 0.00 0.00 0.00 0.00 0.00 0.00 0.00 0.00 0.00 0.00 0.00 0.00 0.00 0.04 0.05 0.20 0.29 0.18 0.23 0.24 0.26 0.19 0.15 0.13 0.10 0.14 0.11 0.08 0.06 0.03 0.08 0.20 0.17 0.06 0.06 0.04 0.02 0.01 0.01 0.02 0.04 0.03 0.03 0.02 0.03 0.01 0.00 0.05 0.02
0.00 0.00 0.00 0.00 0.00 0.00 0.00 0.00 0.00 0.00 0.00 0.00 0.00 0.00 0.00 0.00 0.00 0.00 0.01 0.03 0.18 0.20 0.22 0.22 0.27 0.25 0.16 0.14 0.20 0.22 0.15 0.22 0.24 0.18 0.06 0.06 0.07 0.13 0.09 0.13 0.05 0.07 0.05 0.02 0.02 0.02 0.01 0.01 0.01 0.00 0.00 0.00
0.00 0.00 0.00 0.00 0.00 0.00 0.00 0.00 0.00 0.00 0.00 0.00 0.00 0.00 0.00 0.00 0.00 0.00 0.00 0.00 0.02 0.08 0.15 0.27 0.22 0.27 0.21 0.18 0.24 0.22 0.12 0.20 0.21 0.24 0.18 0.22 0.11 0.12 0.16 0.12 0.08 0.06 0.05 0.04 0.03 0.02 0.02 0.01 0.02 0.02 0.00 0.00
0.00 0.00 0.00 0.00 0.00 0.00 0.00 0.00 0.00 0.00 0.00 0.00 0.00 0.00 0.00 0.00 0.00 0.00 0.00 0.00 0.00 0.01 0.03 0.08 0.18 0.18 0.24 0.22 0.17 0.17 0.18 0.19 0.16 0.33 0.24 0.37 0.16 0.15 0.13 0.10 0.09 0.11 0.13 0.11 0.05 0.03 0.02 0.01 0.01 0.03 0.00 0.00
0.00 0.00 0.00 0.00 0.00 0.00 0.00 0.00 0.00 0.00 0.00 0.00 0.00 0.00 0.00 0.00 0.00 0.00 0.00 0.00 0.00 0.00 0.01 0.01 0.07 0.08 0.14 0.25 0.18 0.22 0.22 0.25 0.20 0.17 0.28 0.24 0.22 0.22 0.18 0.17 0.14 0.12 0.10 0.09 0.10 0.07 0.04 0.02 0.01 0.01 0.00 0.00
0.00 0.00 0.00 0.00 0.00 0.00 0.00 0.00 0.00 0.00 0.00 0.00 0.00 0.00 0.00 0.00 0.00 0.00 0.00 0.00 0.00 0.00 0.00 0.01 0.01 0.03 0.05 0.09 0.17 0.21 0.19 0.13 0.21 0.18 0.20 0.24 0.33 0.23 0.29 0.24 0.18 0.13 0.11 0.10 0.08 0.07 0.09 0.07 0.04 0.02 0.00 0.00
0.00 0.00 0.00 0.00 0.00 0.00 0.00 0.00 0.00 0.00 0.00 0.00 0.00 0.00 0.00 0.00 0.00 0.00 0.00 0.00 0.00 0.00 0.00 0.00 0.00 0.00 0.02 0.05 0.10 0.14 0.17 0.16 0.12 0.14 0.17 0.19 0.23 0.25 0.20 0.24 0.23 0.24 0.16 0.11 0.09 0.08 0.06 0.05 0.07 0.06 0.03 0.01
0.00 0.00 0.00 0.00 0.00 0.00 0.00 0.00 0.00 0.00 0.00 0.00 0.00 0.00 0.00 0.00 0.00 0.00 0.00 0.00 0.00 0.00 0.00 0.00 0.00 0.00 0.00 0.02 0.07 0.11 0.13 0.16 0.16 0.12 0.10 0.13 0.13 0.19 0.26 0.23 0.18 0.17 0.16 0.16 0.16 0.11 0.08 0.06 0.04 0.04 0.05 0.05
0.00 0.00 0.00 0.00 0.00 0.00 0.00 0.00 0.00 0.01 0.00 0.00 0.00 0.00 0.00 0.00 0.00 0.00 0.00 0.00 0.00 0.00 0.00 0.00 0.00 0.00 0.00 0.01 0.04 0.09 0.13 0.13 0.15 0.17 0.16 0.12 0.10 0.12 0.16 0.22 0.23 0.21 0.21 0.21 0.20 0.19 0.15 0.12 0.08 0.06 0.05 0.04
0.01 0.01 0.01 0.00 0.00 0.00 0.00 0.01 0.01 0.00 0.01 0.01 0.00 0.00 0.01 0.01 0.00 0.00 0.00 0.00 0.00 0.00 0.00 0.00 0.00 0.00 0.01 0.01 0.02 0.07 0.11 0.14 0.16 0.17 0.18 0.18 0.17 0.17 0.15 0.15 0.17 0.21 0.24 0.27 0.30 0.28 0.24 0.19 0.15 0.13 0.10 0.08
0.03 0.04 0.08 0.04 0.06 0.06 0.04 0.03 0.02 0.01 0.00 0.02 0.01 0.02 0.01 0.01 0.01 0.02 0.02 0.01 0.02 0.03 0.01 0.01 0.01 0.02 0.02 0.19 0.01 0.03 0.07 0.10 0.14 0.18 0.21 0.22 0.24 0.23 0.21 0.18 0.13 0.15 0.25 0.50 0.39 0.30 0.25 0.19 0.17 0.17 0.15 0.14
0.00 0.00 0.01 0.03 0.08 0.13 0.12 0.23 0.16 0.11 0.11 0.06 0.06 0.03 0.02 0.02 0.02 0.02 0.03 0.03 0.06 0.07 0.05 0.11 0.08 0.07 0.10 0.06 0.03 0.03 0.05 0.08 0.11 0.13 0.16 0.19 0.21 0.23 0.21 0.19 0.16 0.22 0.23 0.30 0.31 0.25 0.24 0.23 0.18 0.15 0.15 0.14
0.00 0.00 0.01 0.00 0.00 0.00 0.01 0.03 0.06 0.13 0.08 0.15 0.13 0.07 0.07 0.08 0.15 0.13 0.07 0.06 0.03 0.04 0.05 0.04 0.10 0.09 0.04 0.04 0.03 0.05 0.06 0.06 0.08 0.11 0.13 0.15 0.17 0.19 0.19 0.19 0.20 0.16 0.18 0.21 0.25 0.33 0.38 0.41 0.27 0.20 0.12 0.07
0.00 0.00 0.01 0.01 0.00 0.01 0.01 0.01 0.00 0.01 0.02 0.05 0.08 0.07 0.13 0.09 0.07 0.11 0.07 0.03 0.05 0.04 0.11 0.07 0.04 0.07 0.11 0.07 0.05 0.07 0.06 0.06 0.06 0.06 0.10 0.13 0.14 0.16 0.19 0.19 0.14 0.13 0.14 0.15 0.19 0.35 0.32 0.40 0.38 0.32 0.26 0.12
0.00 0.00 0.01 0.00 0.01 0.01 0.00 0.00 0.00 0.01 0.00 0.00 0.00 0.01 0.02 0.03 0.03 0.03 0.03 0.04 0.04 0.03 0.03 0.04 0.07 0.07 0.03 0.04 0.06 0.05 0.05 0.05 0.06 0.08 0.07 0.08 0.11 0.15 0.16 0.17 0.18 0.16 0.11 0.12 0.16 0.24 0.35 0.37 0.28 0.21 0.13 0.11
0.00 0.00 0.00 0.01 0.01 0.01 0.01 0.00 0.00 0.00 0.00 0.00 0.01 0.00 0.00 0.01 0.01 0.02 0.04 0.02 0.02 0.04 0.05 0.05 0.08 0.06 0.06 0.07 0.07 0.06 0.06 0.06 0.06 0.05 0.22 0.24 0.13 0.13 0.14 0.15 0.19 0.18 0.15 0.10 0.12 0.19 0.23 0.22 0.25 0.22 0.15 0.11

ECMWFFLT2_prec_precacc_039.txt.gz
Total_Precipitation_Accumulation
0.02 0.02 0.02 0.02 0.06 0.06 0.05 0.09 0.19 0.17 0.19 0.29 0.23 0.16 0.12 0.11 0.05 0.11 0.06 0.20 0.18 0.15 0.25 0.48 0.22 0.21 0.17 0.15 0.18 0.21 0.26 0.23 0.21 0.16 0.19 0.14 0.12 0.12 0.18 0.20 0.18 0.32 0.16 0.09 0.03 0.00 0.00 0.00 0.00 0.00 0.00 0.00
0.03 0.03 0.03 0.03 0.02 0.04 0.03 0.05 0.07 0.06 0.06 0.07 0.12 0.12 0.13 0.18 0.10 0.09 0.15 0.08 0.09 0.15 0.19 0.34 0.31 0.36 0.27 0.33 0.23 0.16 0.14 0.21 0.16 0.16 0.12 0.08 0.06 0.09 0.09 0.14 0.25 0.34 0.22 0.05 0.02 0.01 0.00 0.00 0.00 0.00 0.00 0.00
0.04 0.02 0.03 0.04 0.08 0.07 0.07 0.08 0.06 0.02 0.10 0.08 0.01 0.02 0.03 0.05 0.17 0.13 0.05 0.11 0.14 0.10 0.21 0.13 0.07 0.20 0.47 0.77 0.33 0.31 0.22 0.11 0.08 0.10 0.15 0.10 0.06 0.11 0.08 0.08 0.12 0.23 0.23 0.14 0.01 0.00 0.00 0.00 0.00 0.00 0.00 0.00
0.01 0.01 0.01 0.01 0.02 0.04 0.04 0.03 0.03 0.02 0.01 0.00 0.00 0.00 0.01 0.04 0.07 0.14 0.08 0.09 0.09 0.29 0.09 0.21 0.06 0.12 0.19 0.19 0.34 0.39 0.40 0.23 0.20 0.09 0.07 0.12 0.08 0.07 0.13 0.12 0.22 0.36 0.27 0.36 0.07 0.02 0.00 0.00 0.00 0.00 0.00 0.00
0.03 0.02 0.02 0.03 0.02 0.01 0.02 0.03 0.03 0.02 0.09 0.02 0.01 0.01 0.00 0.01 0.03 0.03 0.03 0.04 0.04 0.07 0.04 0.04 0.12 0.09 0.21 0.17 0.13 0.10 0.19 0.33 0.29 0.23 0.10 0.06 0.04 0.06 0.11 0.10 0.23 0.23 0.37 0.38 0.15 0.03 0.01 0.00 0.00 0.00 0.00 0.00
0.00 0.01 0.01 0.03 0.03 0.03 0.02 0.02 0.07 0.07 0.12 0.09 0.09 0.14 0.03 0.01 0.01 0.02 0.03 0.03 0.02 0.04 0.05 0.06 0.03 0.08 0.04 0.08 0.15 0.15 0.29 0.19 0.21 0.21 0.16 0.15 0.13 0.04 0.09 0.12 0.17 0.29 0.29 0.42 0.29 0.16 0.02 0.00 0.00 0.00 0.00 0.00
0.00 0.00 0.00 0.00 0.02 0.02 0.02 0.05 0.02 0.14 0.12 0.16 0.13 0.11 0.10 0.06 0.02 0.01 0.02 0.03 0.03 0.06 0.03 0.01 0.04 0.06 0.07 0.08 0.12 0.18 0.10 0.21 0.20 0.25 0.14 0.17 0.10 0.07 0.06 0.14 0.09 0.33 0.27 0.31 0.13 0.11 0.07 0.02 0.00 0.00 0.00 0.00
0.00 0.00 0.00 0.00 0.01 0.02 0.02 0.02 0.03 0.05 0.07 0.17 0.07 0.18 0.11 0.13 0.11 0.07 0.05 0.03 0.05 0.10 0.06 0.08 0.03 0.07 0.10 0.08 0.05 0.04 0.10 0.13 0.12 0.16 0.18 0.25 0.19 0.11 0.08 0.10 0.08 0.08 0.49 0.26 0.14 0.06 0.10 0.10 0.00 0.00 0.00 0.00
0.00 0.00 0.00 0.00 0.00 0.01 0.01 0.02 0.01 0.02 0.02 0.02 0.05 0.07 0.11 0.09 0.13 0.07 0.07 0.04 0.02 0.02 0.03 0.08 0.05 0.08 0.06 0.06 0.06 0.04 0.14 0.12 0.11 0.16 0.30 0.15 0.18 0.20 0.20 0.13 0.11 0.08 0.20 0.27 0.21 0.10 0.05 0.12 0.06 0.01 0.00 0.00
0.00 0.00 0.00 0.00 0.00 0.00 0.01 0.02 0.01 0.03 0.02 0.02 0.02 0.03 0.03 0.18 0.06 0.09 0.06 0.07 0.03 0.01 0.01 0.02 0.06 0.03 0.09 0.09 0.09 0.24 0.10 0.09 0.11 0.19 0.21 0.29 0.27 0.23 0.13 0.16 0.10 0.09 0.10 0.16 0.18 0.16 0.09 0.06 0.04 0.04 0.00 0.00
0.00 0.00 0.00 0.00 0.00 0.00 0.00 0.01 0.01 0.01 0.02 0.03 0.04 0.18 0.14 0.05 0.14 0.26 0.09 0.11 0.16 0.11 0.08 0.04 0.05 0.05 0.08 0.06 0.04 0.06 0.11 0.05 0.15 0.09 0.09 0.09 0.10 0.22 0.21 0.14 0.09 0.13 0.11 0.09 0.08 0.11 0.18 0.12 0.06 0.02 0.02 0.00
0.00 0.00 0.00 0.00 0.00 0.00 0.00 0.01 0.01 0.00 0.02 0.02 0.04 0.06 0.09 0.08 0.06 0.09 0.06 0.18 0.10 0.11 0.26 0.11 0.20 0.12 0.05 0.01 0.06 0.04 0.08 0.05 0.03 0.11 0.10 0.08 0.05 0.08 0.16 0.22 0.16 0.16 0.11 0.15 0.10 0.07 0.10 0.18 0.09 0.01 0.01 0.00
0.00 0.00 0.00 0.00 0.00 0.00 0.00 0.00 0.00 0.01 0.01 0.03 0.05 0.03 0.05 0.07 0.09 0.15 0.17 0.12 0.06 0.20 0.14 0.05 0.05 0.11 0.09 0.04 0.11 0.19 0.03 0.02 0.01 0.04 0.07 0.04 0.04 0.08 0.11 0.14 0.20 0.19 0.15 0.14 0.17 0.13 0.10 0.09 0.11 0.03 0.00 0.00
0.00 0.00 0.00 0.00 0.00 0.00 0.00 0.00 0.00 0.00 0.00 0.00 0.01 0.04 0.20 0.09 0.17 0.08 0.23 0.23 0.18 0.18 0.31 0.11 0.16 0.21 0.17 0.16 0.10 0.05 0.04 0.04 0.03 0.05 0.05 0.05 0.02 0.05 0.05 0.05 0.09 0.17 0.18 0.13 0.13 0.16 0.15 0.11 0.09 0.11 0.05 0.01
0.00 0.00 0.00 0.00 0.00 0.00 0.00 0.00 0.00 0.00 0.00 0.00 0.00 0.00 0.02 0.08 0.15 0.21 0.16 0.28 0.14 0.20 0.09 0.13 0.08 0.09 0.14 0.21 0.06 0.29 0.05 0.11 0.08 0.05 0.04 0.04 0.04 0.10 0.02 0.02 0.08 0.07 0.07 0.10 0.08 0.14 0.13 0.14 0.11 0.07 0.16 0.11
0.00 0.00 0.00 0.00 0.00 0.00 0.00 0.00 0.00 0.00 0.00 0.00 0.00 0.00 0.00 0.00 0.04 0.05 0.20 0.29 0.18 0.23 0.24 0.26 0.19 0.15 0.13 0.10 0.14 0.11 0.08 0.06 0.03 0.08 0.20 0.17 0.06 0.08 0.04 0.03 0.02 0.06 0.06 0.06 0.07 0.06 0.08 0.11 0.11 0.09 0.12 0.09
0.00 0.00 0.00 0.00 0.00 0.00 0.00 0.00 0.00 0.00 0.00 0.00 0.00 0.00 0.00 0.00 0.00 0.00 0.01 0.03 0.18 0.20 0.22 0.22 0.27 0.25 0.16 0.14 0.20 0.22 0.15 0.22 0.24 0.18 0.06 0.06 0.07 0.13 0.09 0.14 0.06 0.08 0.06 0.05 0.06 0.04 0.05 0.03 0.04 0.06 0.07 0.06
0.00 0.00 0.00 0.00 0.00 0.00 0.00 0.00 0.00 0.00 0.00 0.00 0.00 0.00 0.00 0.00 0.00 0.00 0.00 0.00 0.02 0.08 0.15 0.27 0.22 0.27 0.21 0.18 0.24 0.22 0.12 0.20 0.21 0.24 0.18 0.22 0.11 0.12 0.16 0.12 0.09 0.07 0.07 0.05 0.05 0.06 0.05 0.02 0.07 0.02 0.01 0.04
0.00 0.00 0.00 0.00 0.00 0.00 0.00 0.00 0.00 0.00 0.00 0.00 0.00 0.00 0.00 0.00 0.00 0.00 0.00 0.00 0.00 0.01 0.03 0.08 0.18 0.18 0.24 0.22 0.17 0.17 0.18 0.19 0.16 0.33 0.24 0.37 0.16 0.15 0.13 0.10 0.09 0.12 0.14 0.12 0.07 0.05 0.04 0.04 0.05 0.05 0.01 0.00
0.00 0.00 0.00 0.00 0.00 0.00 0.00 0.00 0.00 0.00 0.00 0.00 0.00 0.00 0.00 0.00 0.00 0.00 0.00 0.00 0.00 0.00 0.01 0.01 0.07 0.08 0.14 0.25 0.18 0.22 0.22 0.25 0.20 0.17 0.28 0.24 0.22 0.22 0.18 0.17 0.14 0.12 0.10 0.09 0.11 0.09 0.05 0.04 0.03 0.04 0.03 0.00
0.00 0.00 0.00 0.00 0.00 0.00 0.00 0.00 0.00 0.00 0.00 0.00 0.00 0.00 0.00 0.00 0.00 0.00 0.00 0.00 0.00 0.00 0.00 0.01 0.01 0.03 0.05 0.09 0.17 0.21 0.19 0.13 0.21 0.18 0.20 0.24 0.33 0.23 0.29 0.24 0.18 0.13 0.11 0.10 0.08 0.08 0.11 0.09 0.07 0.02 0.01 0.02
0.00 0.00 0.00 0.00 0.00 0.00 0.00 0.00 0.00 0.00 0.00 0.00 0.00 0.00 0.00 0.00 0.00 0.00 0.00 0.00 0.00 0.00 0.00 0.00 0.00 0.00 0.02 0.05 0.10 0.14 0.17 0.16 0.12 0.14 0.17 0.19 0.23 0.25 0.20 0.24 0.23 0.24 0.16 0.11 0.09 0.08 0.06 0.06 0.08 0.09 0.03 0.01
0.00 0.00 0.00 0.00 0.00 0.00 0.00 0.00 0.00 0.00 0.00 0.00 0.00 0.00 0.00 0.00 0.00 0.00 0.00 0.00 0.00 0.00 0.00 0.00 0.00 0.00 0.00 0.02 0.07 0.11 0.13 0.16 0.16 0.12 0.10 0.13 0.13 0.19 0.26 0.23 0.18 0.17 0.16 0.16 0.16 0.11 0.08 0.06 0.05 0.05 0.06 0.05
0.00 0.00 0.00 0.00 0.00 0.00 0.00 0.00 0.00 0.01 0.00 0.00 0.00 0.00 0.00 0.00 0.00 0.00 0.00 0.00 0.00 0.00 0.00 0.00 0.00 0.00 0.00 0.01 0.04 0.09 0.13 0.13 0.15 0.17 0.16 0.12 0.10 0.12 0.16 0.23 0.23 0.21 0.22 0.21 0.20 0.19 0.15 0.12 0.08 0.07 0.05 0.05
0.01 0.01 0.01 0.00 0.00 0.00 0.00 0.01 0.01 0.00 0.01 0.01 0.00 0.00 0.01 0.01 0.00 0.00 0.00 0.00 0.00 0.00 0.00 0.00 0.00 0.00 0.01 0.01 0.02 0.07 0.11 0.14 0.16 0.17 0.18 0.18 0.17 0.17 0.15 0.15 0.17 0.21 0.24 0.27 0.30 0.28 0.24 0.19 0.15 0.13 0.10 0.08
0.03 0.04 0.08 0.04 0.06 0.06 0.04 0.03 0.02 0.01 0.00 0.02 0.01 0.02 0.01 0.01 0.01 0.02 0.02 0.01 0.02 0.03 0.01 0.01 0.01 0.02 0.02 0.19 0.01 0.03 0.07 0.10 0.14 0.18 0.21 0.22 0.24 0.23 0.21 0.18 0.13 0.15 0.25 0.50 0.39 0.30 0.25 0.19 0.17 0.17 0.15 0.14
0.00 0.00 0.01 0.03 0.08 0.14 0.12 0.23 0.16 0.11 0.11 0.06 0.06 0.03 0.02 0.02 0.02 0.02 0.03 0.03 0.06 0.07 0.05 0.11 0.08 0.07 0.09 0.06 0.03 0.03 0.05 0.08 0.11 0.13 0.16 0.19 0.21 0.23 0.21 0.19 0.16 0.22 0.23 0.30 0.31 0.25 0.24 0.23 0.18 0.15 0.15 0.14
0.00 0.00 0.01 0.00 0.00 0.00 0.01 0.03 0.06 0.13 0.08 0.15 0.13 0.07 0.07 0.08 0.15 0.13 0.07 0.06 0.03 0.04 0.05 0.04 0.10 0.09 0.04 0.04 0.03 0.05 0.06 0.06 0.08 0.11 0.13 0.15 0.17 0.19 0.19 0.19 0.20 0.16 0.18 0.21 0.25 0.33 0.38 0.41 0.27 0.20 0.12 0.07
0.00 0.00 0.01 0.01 0.00 0.01 0.01 0.01 0.00 0.01 0.02 0.05 0.08 0.07 0.13 0.09 0.07 0.11 0.07 0.03 0.05 0.04 0.11 0.07 0.04 0.07 0.11 0.07 0.05 0.06 0.07 0.06 0.06 0.06 0.10 0.12 0.14 0.16 0.19 0.19 0.14 0.13 0.14 0.15 0.19 0.35 0.32 0.40 0.38 0.32 0.26 0.12
0.00 0.00 0.01 0.00 0.01 0.01 0.00 0.01 0.00 0.01 0.00 0.00 0.00 0.01 0.02 0.03 0.03 0.03 0.03 0.04 0.04 0.03 0.03 0.04 0.07 0.07 0.03 0.04 0.06 0.05 0.05 0.05 0.06 0.08 0.07 0.08 0.11 0.15 0.16 0.17 0.18 0.16 0.11 0.12 0.16 0.24 0.35 0.37 0.28 0.21 0.13 0.11
0.00 0.00 0.00 0.01 0.01 0.01 0.01 0.00 0.00 0.00 0.00 0.00 0.01 0.00 0.00 0.01 0.01 0.02 0.04 0.02 0.02 0.04 0.05 0.05 0.08 0.06 0.06 0.07 0.07 0.06 0.06 0.06 0.06 0.05 0.22 0.24 0.13 0.13 0.14 0.15 0.19 0.18 0.15 0.10 0.12 0.19 0.23 0.22 0.25 0.22 0.15 0.11

ECMWFFLT2_prec_precacc_042.txt.gz
Total_Precipitation_Accumulation
0.02 0.02 0.02 0.02 0.06 0.06 0.05 0.09 0.19 0.17 0.19 0.29 0.23 0.16 0.13 0.13 0.10 0.16 0.11 0.27 0.26 0.22 0.32 0.55 0.28 0.28 0.25 0.27 0.40 0.50 0.40 0.34 0.36 0.18 0.19 0.14 0.13 0.13 0.18 0.20 0.18 0.37 0.28 0.31 0.14 0.02 0.01 0.00 0.00 0.00 0.00 0.00
0.03 0.03 0.03 0.03 0.02 0.04 0.03 0.05 0.07 0.06 0.06 0.07 0.12 0.12 0.13 0.18 0.10 0.10 0.18 0.11 0.14 0.20 0.25 0.40 0.36 0.41 0.35 0.41 0.31 0.29 0.30 0.37 0.27 0.25 0.17 0.08 0.06 0.09 0.09 0.14 0.25 0.37 0.28 0.23 0.13 0.10 0.00 0.00 0.00 0.00 0.00 0.00
0.04 0.02 0.03 0.04 0.08 0.07 0.07 0.08 0.06 0.02 0.10 0.08 0.01 0.02 0.03 0.05 0.17 0.13 0.05 0.11 0.15 0.12 0.25 0.17 0.11 0.24 0.52 0.82 0.40 0.37 0.27 0.20 0.28 0.24 0.23 0.14 0.07 0.12 0.08 0.09 0.13 0.24 0.29 0.28 0.24 0.17 0.07 0.00 0.00 0.00 0.00 0.00
0.01 0.01 0.01 0.01 0.02 0.04 0.04 0.03 0.03 0.02 0.01 0.00 0.00 0.00 0.01 0.04 0.07 0.14 0.08 0.09 0.09 0.29 0.10 0.22 0.09 0.15 0.25 0.24 0.38 0.44 0.46 0.28 0.29 0.19 0.15 0.17 0.14 0.09 0.14 0.14 0.23 0.37 0.30 0.46 0.28 0.19 0.10 0.01 0.01 0.00 0.00 0.00
0.03 0.02 0.02 0.03 0.02 0.01 0.02 0.03 0.03 0.02 0.09 0.02 0.01 0.01 0.00 0.01 0.03 0.03 0.03 0.04 0.04 0.07 0.04 0.04 0.13 0.10 0.23 0.19 0.18 0.15 0.25 0.40 0.37 0.32 0.21 0.14 0.09 0.10 0.14 0.14 0.27 0.25 0.39 0.41 0.27 0.14 0.09 0.03 0.00 0.01 0.00 0.00
0.00 0.01 0.01 0.03 0.03 0.03 0.02 0.02 0.07 0.07 0.12 0.09 0.09 0.14 0.03 0.01 0.01 0.02 0.03 0.03 0.02 0.04 0.05 0.06 0.03 0.08 0.04 0.09 0.17 0.17 0.34 0.27 0.27 0.28 0.28 0.27 0.23 0.12 0.14 0.17 0.21 0.32 0.31 0.44 0.35 0.29 0.15 0.10 0.01 0.00 0.00 0.00
0.00 0.00 0.00 0.00 0.02 0.02 0.02 0.05 0.02 0.14 0.12 0.16 0.13 0.11 0.10 0.06 0.02 0.01 0.02 0.03 0.03 0.06 0.03 0.01 0.04 0.06 0.07 0.08 0.12 0.18 0.12 0.38 0.26 0.31 0.18 0.25 0.20 0.18 0.19 0.24 0.17 0.39 0.30 0.33 0.16 0.21 0.21 0.18 0.07 0.01 0.00 0.00
0.00 0.00 0.00 0.00 0.01 0.02 0.02 0.02 0.03 0.05 0.07 0.17 0.07 0.18 0.11 0.13 0.11 0.07 0.05 0.03 0.05 0.10 0.06 0.08 0.03 0.07 0.10 0.08 0.05 0.04 0.11 0.14 0.13 0.20 0.24 0.27 0.22 0.17 0.14 0.24 0.23 0.20 0.55 0.30 0.17 0.10 0.22 0.21 0.09 0.03 0.01 0.00
0.00 0.00 0.00 0.00 0.00 0.01 0.01 0.02 0.01 0.02 0.02 0.02 0.05 0.07 0.11 0.09 0.13 0.07 0.07 0.04 0.02 0.02 0.03 0.08 0.05 0.08 0.06 0.06 0.06 0.04 0.14 0.12 0.12 0.16 0.31 0.20 0.22 0.24 0.25 0.17 0.19 0.21 0.38 0.36 0.26 0.15 0.09 0.19 0.16 0.07 0.02 0.00
0.00 0.00 0.00 0.00 0.00 0.00 0.01 0.02 0.01 0.03 0.02 0.02 0.02 0.03 0.03 0.18 0.06 0.09 0.06 0.07 0.03 0.01 0.01 0.02 0.06 0.03 0.09 0.09 0.09 0.24 0.10 0.09 0.11 0.19 0.21 0.30 0.29 0.29 0.21 0.24 0.19 0.19 0.20 0.26 0.32 0.26 0.14 0.11 0.11 0.13 0.03 0.00
0.00 0.00 0.00 0.00 0.00 0.00 0.00 0.01 0.01 0.01 0.02 0.03 0.04 0.18 0.14 0.05 0.14 0.26 0.09 0.11 0.16 0.11 0.08 0.04 0.05 0.05 0.08 0.06 0.04 0.06 0.11 0.05 0.15 0.09 0.09 0.09 0.11 0.23 0.27 0.24 0.21 0.27 0.25 0.20 0.17 0.23 0.26 0.16 0.11 0.09 0.10 0.02
0.00 0.00 0.00 0.00 0.00 0.00 0.00 0.01 0.01 0.00 0.02 0.02 0.04 0.06 0.09 0.08 0.06 0.09 0.06 0.18 0.10 0.11 0.26 0.11 0.20 0.12 0.05 0.01 0.06 0.04 0.08 0.05 0.03 0.11 0.10 0.08 0.05 0.08 0.17 0.25 0.27 0.29 0.27 0.31 0.24 0.17 0.19 0.23 0.13 0.06 0.09 0.08
0.00 0.00 0.00 0.00 0.00 0.00 0.00 0.00 0.00 0.01 0.01 0.03 0.05 0.03 0.05 0.07 0.09 0.15 0.17 0.12 0.06 0.20 0.14 0.05 0.05 0.11 0.09 0.04 0.11 0.19 0.03 0.02 0.01 0.04 0.07 0.04 0.04 0.08 0.11 0.14 0.23 0.29 0.29 0.33 0.37 0.28 0.22 0.18 0.16 0.08 0.05 0.05
0.00 0.00 0.00 0.00 0.00 0.00 0.00 0.00 0.00 0.00 0.00 0.00 0.01 0.04 0.20 0.09 0.17 0.08 0.23 0.23 0.18 0.18 0.31 0.11 0.16 0.21 0.17 0.16 0.10 0.05 0.04 0.04 0.03 0.05 0.05 0.05 0.02 0.05 0.05 0.05 0.09 0.20 0.28 0.27 0.32 0.35 0.30 0.22 0.17 0.16 0.11 0.04
0.00 0.00 0.00 0.00 0.00 0.00 0.00 0.00 0.00 0.00 0.00 0.00 0.00 0.00 0.02 0.08 0.15 0.21 0.16 0.28 0.14 0.20 0.09 0.13 0.08 0.09 0.14 0.21 0.06 0.29 0.05 0.11 0.08 0.05 0.04 0.04 0.04 0.10 0.02 0.02 0.08 0.07 0.09 0.19 0.26 0.31 0.30 0.29 0.21 0.13 0.22 0.16
0.00 0.00 0.00 0.00 0.00 0.00 0.00 0.00 0.00 0.00 0.00 0.00 0.00 0.00 0.00 0.00 0.04 0.05 0.20 0.29 0.18 0.23 0.24 0.26 0.19 0.15 0.13 0.10 0.14 0.11 0.08 0.06 0.03 0.08 0.20 0.17 0.06 0.08 0.04 0.03 0.02 0.06 0.06 0.06 0.12 0.24 0.27 0.28 0.25 0.19 0.17 0.14
0.00 0.00 0.00 0.00 0.00 0.00 0.00 0.00 0.00 0.00 0.00 0.00 0.00 0.00 0.00 0.00 0.00 0.00 0.01 0.03 0.18 0.20 0.22 0.22 0.27 0.25 0.16 0.14 0.20 0.22 0.15 0.22 0.24 0.18 0.06 0.06 0.07 0.13 0.09 0.14 0.06 0.08 0.06 0.05 0.06 0.06 0.14 0.29 0.26 0.22 0.17 0.11
0.00 0.00 0.00 0.00 0.00 0.00 0.00 0.00 0.00 0.00 0.00 0.00 0.00 0.00 0.00 0.00 0.00 0.00 0.00 0.00 0.02 0.08 0.15 0.27 0.22 0.27 0.21 0.18 0.24 0.22 0.12 0.20 0.21 0.24 0.18 0.22 0.11 0.12 0.16 0.12 0.09 0.07 0.07 0.05 0.05 0.07 0.07 0.07 0.22 0.19 0.15 0.15
0.00 0.00 0.00 0.00 0.00 0.00 0.00 0.00 0.00 0.00 0.00 0.00 0.00 0.00 0.00 0.00 0.00 0.00 0.00 0.00 0.00 0.01 0.03 0.08 0.18 0.18 0.24 0.22 0.17 0.17 0.18 0.19 0.16 0.33 0.24 0.37 0.16 0.15 0.13 0.10 0.09 0.12 0.14 0.12 0.07 0.05 0.05 0.06 0.10 0.15 0.18 0.12
0.00 0.00 0.00 0.00 0.00 0.00 0.00 0.00 0.00 0.00 0.00 0.00 0.00 0.00 0.00 0.00 0.00 0.00 0.00 0.00 0.00 0.00 0.01 0.01 0.07 0.08 0.14 0.25 0.18 0.22 0.22 0.25 0.20 0.17 0.28 0.24 0.22 0.22 0.18 0.17 0.14 0.12 0.10 0.09 0.11 0.09 0.05 0.04 0.05 0.08 0.11 0.12
0.00 0.00 0.00 0.00 0.00 0.00 0.00 0.00 0.00 0.00 0.00 0.00 0.00 0.00 0.00 0.00 0.00 0.00 0.00 0.00 0.00 0.00 0.00 0.01 0.01 0.03 0.05 0.09 0.17 0.21 0.19 0.13 0.21 0.18 0.20 0.24 0.33 0.23 0.29 0.24 0.18 0.13 0.11 0.10 0.08 0.08 0.11 0.09 0.07 0.04 0.06 0.10
0.00 0.00 0.00 0.00 0.00 0.00 0.00 0.00 0.00 0.00 0.00 0.00 0.00 0.00 0.00 0.00 0.00 0.00 0.00 0.00 0.00 0.00 0.00 0.00 0.00 0.00 0.02 0.05 0.10 0.14 0.17 0.16 0.12 0.14 0.17 0.19 0.23 0.25 0.20 0.24 0.23 0.24 0.16 0.11 0.09 0.08 0.06 0.06 0.08 0.09 0.05 0.05
0.00 0.00 0.00 0.00 0.00 0.00 0.00 0.00 0.00 0.00 0.00 0.00 0.00 0.00 0.00 0.00 0.00 0.00 0.00 0.00 0.00 0.00 0.00 0.00 0.00 0.00 0.00 0.02 0.07 0.11 0.13 0.16 0.16 0.12 0.10 0.13 0.13 0.19 0.26 0.23 0.18 0.17 0.16 0.16 0.16 0.11 0.08 0.06 0.05 0.05 0.07 0.07
0.00 0.00 0.00 0.00 0.00 0.00 0.00 0.00 0.00 0.01 0.00 0.00 0.00 0.00 0.00 0.00 0.00 0.00 0.00 0.00 0.00 0.00 0.00 0.00 0.00 0.00 0.00 0.01 0.04 0.09 0.13 0.13 0.15 0.17 0.16 0.12 0.10 0.12 0.16 0.23 0.23 0.21 0.22 0.21 0.20 0.19 0.15 0.12 0.08 0.07 0.05 0.05
0.01 0.01 0.01 0.00 0.00 0.00 0.00 0.01 0.01 0.00 0.01 0.01 0.00 0.00 0.01 0.01 0.00 0.00 0.00 0.00 0.00 0.00 0.00 0.00 0.00 0.00 0.01 0.01 0.02 0.07 0.11 0.14 0.16 0.17 0.18 0.18 0.17 0.17 0.15 0.15 0.17 0.21 0.24 0.27 0.30 0.28 0.24 0.19 0.15 0.13 0.10 0.08
0.03 0.04 0.08 0.04 0.06 0.06 0.04 0.03 0.02 0.01 0.00 0.02 0.01 0.02 0.01 0.01 0.01 0.02 0.02 0.01 0.02 0.03 0.01 0.01 0.01 0.02 0.02 0.19 0.01 0.03 0.07 0.10 0.14 0.18 0.21 0.22 0.24 0.23 0.21 0.18 0.13 0.15 0.25 0.50 0.39 0.30 0.25 0.19 0.17 0.17 0.15 0.14
0.00 0.00 0.01 0.03 0.08 0.14 0.12 0.23 0.16 0.11 0.11 0.06 0.06 0.03 0.02 0.02 0.02 0.02 0.03 0.03 0.06 0.07 0.05 0.11 0.08 0.07 0.09 0.06 0.03 0.03 0.05 0.08 0.11 0.13 0.16 0.19 0.21 0.23 0.21 0.19 0.16 0.22 0.23 0.30 0.31 0.25 0.24 0.23 0.18 0.15 0.15 0.14
0.00 0.00 0.01 0.00 0.00 0.00 0.01 0.03 0.06 0.13 0.08 0.15 0.13 0.07 0.07 0.08 0.15 0.13 0.07 0.06 0.03 0.04 0.05 0.04 0.10 0.09 0.04 0.04 0.03 0.05 0.06 0.06 0.08 0.11 0.13 0.15 0.17 0.19 0.19 0.19 0.20 0.16 0.18 0.21 0.25 0.33 0.38 0.41 0.27 0.20 0.12 0.07
0.00 0.00 0.01 0.01 0.00 0.01 0.01 0.01 0.00 0.01 0.02 0.05 0.08 0.07 0.13 0.09 0.07 0.11 0.07 0.03 0.05 0.04 0.11 0.07 0.04 0.07 0.11 0.07 0.05 0.06 0.07 0.06 0.06 0.06 0.10 0.12 0.14 0.16 0.19 0.19 0.14 0.13 0.14 0.15 0.19 0.35 0.32 0.40 0.38 0.32 0.26 0.12
0.00 0.00 0.01 0.00 0.01 0.01 0.00 0.01 0.00 0.01 0.00 0.00 0.00 0.01 0.02 0.03 0.03 0.03 0.03 0.04 0.04 0.03 0.03 0.04 0.07 0.07 0.03 0.04 0.06 0.05 0.05 0.05 0.06 0.08 0.07 0.08 0.11 0.15 0.16 0.17 0.18 0.16 0.11 0.12 0.16 0.24 0.35 0.37 0.28 0.21 0.13 0.11
0.00 0.00 0.00 0.01 0.01 0.01 0.01 0.00 0.00 0.00 0.00 0.00 0.01 0.00 0.00 0.01 0.01 0.02 0.04 0.02 0.02 0.04 0.05 0.05 0.08 0.06 0.06 0.07 0.07 0.06 0.06 0.06 0.06 0.05 0.22 0.24 0.13 0.13 0.14 0.15 0.19 0.18 0.15 0.10 0.12 0.19 0.23 0.22 0.25 0.22 0.15 0.11

ECMWFFLT2_prec_precacc_045.txt.gz
Total_Precipitation_Accumulation
0.02 0.02 0.02 0.02 0.06 0.06 0.05 0.09 0.19 0.17 0.19 0.29 0.24 0.17 0.14 0.14 0.11 0.20 0.21 0.41 0.42 0.41 0.52 0.74 0.46 0.45 0.42 0.45 0.61 0.73 0.63 0.57 0.57 0.38 0.33 0.21 0.16 0.16 0.22 0.24 0.22 0.40 0.30 0.42 0.29 0.14 0.11 0.03 0.00 0.01 0.00 0.00
0.03 0.03 0.03 0.03 0.02 0.03 0.03 0.05 0.07 0.06 0.06 0.07 0.12 0.12 0.13 0.18 0.11 0.10 0.20 0.16 0.21 0.31 0.37 0.54 0.52 0.57 0.50 0.55 0.47 0.47 0.48 0.57 0.48 0.44 0.33 0.23 0.16 0.15 0.13 0.18 0.31 0.42 0.32 0.25 0.21 0.26 0.07 0.08 0.01 0.00 0.00 0.01
0.04 0.02 0.03 0.04 0.08 0.07 0.07 0.08 0.06 0.02 0.10 0.08 0.01 0.02 0.03 0.05 0.17 0.13 0.05 0.12 0.17 0.16 0.30 0.25 0.21 0.37 0.67 0.97 0.53 0.50 0.41 0.33 0.45 0.44 0.42 0.29 0.22 0.25 0.18 0.14 0.17 0.29 0.35 0.33 0.27 0.30 0.18 0.04 0.02 0.00 0.00 0.02
0.01 0.01 0.01 0.01 0.02 0.04 0.04 0.03 0.03 0.02 0.01 0.00 0.00 0.00 0.01 0.04 0.07 0.14 0.08 0.09 0.09 0.30 0.11 0.25 0.12 0.20 0.33 0.34 0.51 0.58 0.60 0.41 0.41 0.32 0.31 0.35 0.30 0.24 0.27 0.25 0.31 0.45 0.37 0.50 0.34 0.23 0.13 0.05 0.08 0.10 0.01 0.00
0.03 0.02 0.02 0.03 0.02 0.01 0.02 0.03 0.03 0.02 0.09 0.02 0.01 0.01 0.00 0.01 0.03 0.03 0.03 0.04 0.04 0.07 0.04 0.04 0.14 0.12 0.25 0.23 0.25 0.26 0.37 0.52 0.48 0.43 0.33 0.28 0.24 0.25 0.30 0.35 0.43 0.37 0.48 0.48 0.31 0.19 0.17 0.07 0.03 0.03 0.01 0.00
0.00 0.01 0.01 0.03 0.03 0.03 0.02 0.02 0.07 0.07 0.12 0.09 0.09 0.14 0.03 0.01 0.00 0.02 0.03 0.03 0.02 0.04 0.05 0.06 0.03 0.08 0.05 0.10 0.18 0.21 0.41 0.36 0.38 0.38 0.37 0.38 0.36 0.25 0.28 0.35 0.40 0.49 0.43 0.53 0.42 0.47 0.30 0.16 0.05 0.07 0.02 0.01
0.00 0.00 0.00 0.00 0.02 0.02 0.02 0.05 0.02 0.14 0.12 0.16 0.13 0.11 0.10 0.06 0.02 0.01 0.02 0.03 0.03 0.06 0.03 0.01 0.04 0.06 0.07 0.08 0.13 0.18 0.13 0.41 0.33 0.40 0.27 0.34 0.29 0.28 0.30 0.39 0.36 0.61 0.50 0.49 0.26 0.30 0.33 0.26 0.13 0.03 0.01 0.01
0.00 0.00 0.00 0.00 0.01 0.02 0.02 0.02 0.03 0.05 0.07 0.17 0.07 0.18 0.11 0.13 0.11 0.07 0.05 0.03 0.05 0.10 0.06 0.08 0.03 0.07 0.10 0.08 0.05 0.04 0.11 0.15 0.14 0.23 0.32 0.39 0.32 0.26 0.24 0.35 0.40 0.42 0.78 0.52 0.34 0.21 0.31 0.31 0.16 0.06 0.03 0.01
0.00 0.00 0.00 0.00 0.00 0.01 0.01 0.02 0.01 0.02 0.02 0.02 0.05 0.07 0.11 0.09 0.13 0.07 0.07 0.04 0.02 0.02 0.03 0.08 0.05 0.08 0.06 0.06 0.06 0.04 0.14 0.12 0.12 0.16 0.32 0.23 0.32 0.36 0.38 0.30 0.32 0.41 0.63 0.59 0.47 0.33 0.22 0.30 0.26 0.12 0.05 0.01
0.00 0.00 0.00 0.00 0.00 0.00 0.01 0.02 0.01 0.03 0.02 0.02 0.02 0.03 0.03 0.18 0.06 0.09 0.06 0.07 0.03 0.01 0.01 0.02 0.06 0.03 0.09 0.09 0.08 0.24 0.10 0.09 0.11 0.19 0.22 0.30 0.30 0.35 0.30 0.36 0.34 0.33 0.41 0.52 0.58 0.51 0.32 0.26 0.21 0.21 0.09 0.03
0.00 0.00 0.00 0.00 0.00 0.00 0.00 0.01 0.01 0.01 0.02 0.03 0.04 0.18 0.14 0.05 0.14 0.26 0.09 0.11 0.16 0.11 0.08 0.04 0.05 0.05 0.08 0.06 0.04 0.06 0.11 0.05 0.15 0.09 0.09 0.09 0.11 0.24 0.29 0.30 0.29 0.40 0.39 0.38 0.39 0.49 0.57 0.43 0.30 0.21 0.17 0.06
0.00 0.00 0.00 0.00 0.00 0.00 0.00 0.01 0.01 0.00 0.02 0.02 0.04 0.06 0.09 0.08 0.06 0.08 0.06 0.18 0.10 0.11 0.26 0.11 0.20 0.12 0.05 0.02 0.06 0.04 0.08 0.05 0.03 0.11 0.10 0.08 0.05 0.08 0.17 0.26 0.29 0.34 0.37 0.45 0.39 0.34 0.42 0.50 0.38 0.29 0.24 0.16
0.00 0.00 0.00 0.00 0.00 0.00 0.00 0.00 0.00 0.01 0.01 0.03 0.05 0.03 0.05 0.07 0.09 0.15 0.17 0.12 0.06 0.20 0.14 0.05 0.05 0.11 0.09 0.04 0.11 0.19 0.03 0.02 0.01 0.04 0.07 0.04 0.04 0.08 0.11 0.14 0.23 0.30 0.31 0.39 0.49 0.41 0.35 0.37 0.38 0.32 0.31 0.22
0.00 0.00 0.00 0.00 0.00 0.00 0.00 0.00 0.00 0.00 0.00 0.00 0.00 0.04 0.20 0.09 0.17 0.08 0.23 0.23 0.18 0.18 0.31 0.11 0.16 0.21 0.17 0.16 0.10 0.05 0.04 0.04 0.03 0.05 0.05 0.05 0.02 0.06 0.05 0.05 0.09 0.20 0.29 0.30 0.37 0.46 0.43 0.34 0.30 0.32 0.30 0.29
0.00 0.00 0.00 0.00 0.00 0.00 0.00 0.00 0.00 0.00 0.00 0.00 0.00 0.00 0.02 0.08 0.15 0.21 0.16 0.28 0.14 0.20 0.09 0.13 0.08 0.09 0.14 0.21 0.06 0.29 0.05 0.11 0.08 0.05 0.04 0.04 0.04 0.10 0.02 0.02 0.08 0.07 0.09 0.20 0.27 0.35 0.40 0.44 0.36 0.26 0.34 0.31
0.00 0.00 0.00 0.00 0.00 0.00 0.00 0.00 0.00 0.00 0.00 0.00 0.00 0.00 0.00 0.00 0.04 0.05 0.20 0.29 0.18 0.23 0.24 0.26 0.19 0.15 0.13 0.10 0.14 0.11 0.08 0.06 0.03 0.08 0.20 0.17 0.06 0.08 0.04 0.03 0.02 0.06 0.06 0.06 0.12 0.24 0.29 0.36 0.42 0.37 0.32 0.27
0.00 0.00 0.00 0.00 0.00 0.00 0.00 0.00 0.00 0.00 0.00 0.00 0.00 0.00 0.00 0.00 0.00 0.00 0.01 0.03 0.18 0.20 0.22 0.22 0.27 0.25 0.16 0.14 0.20 0.22 0.15 0.22 0.24 0.18 0.06 0.06 0.07 0.13 0.09 0.14 0.06 0.08 0.06 0.05 0.06 0.06 0.14 0.30 0.32 0.36 0.39 0.29
0.00 0.00 0.00 0.00 0.00 0.00 0.00 0.00 0.00 0.00 0.00 0.00 0.00 0.00 0.00 0.00 0.00 0.00 0.00 0.00 0.02 0.08 0.15 0.27 0.22 0.27 0.21 0.18 0.24 0.22 0.12 0.20 0.21 0.24 0.18 0.22 0.11 0.12 0.16 0.12 0.09 0.07 0.07 0.05 0.05 0.07 0.07 0.07 0.23 0.25 0.28 0.37
0.00 0.00 0.00 0.00 0.00 0.00 0.00 0.00 0.00 0.00 0.00 0.00 0.00 0.00 0.00 0.00 0.00 0.00 0.00 0.00 0.00 0.01 0.03 0.08 0.18 0.18 0.24 0.22 0.17 0.17 0.18 0.19 0.16 0.33 0.24 0.37 0.16 0.15 0.13 0.10 0.09 0.12 0.14 0.12 0.07 0.05 0.05 0.06 0.10 0.16 0.24 0.23
0.00 0.00 0.00 0.00 0.00 0.00 0.00 0.00 0.00 0.00 0.00 0.00 0.00 0.00 0.00 0.00 0.00 0.00 0.00 0.00 0.00 0.00 0.01 0.01 0.07 0.08 0.14 0.25 0.18 0.22 0.22 0.25 0.20 0.17 0.28 0.25 0.22 0.22 0.18 0.17 0.14 0.12 0.10 0.09 0.11 0.09 0.05 0.04 0.05 0.08 0.11 0.17
0.00 0.00 0.00 0.00 0.00 0.00 0.00 0.00 0.00 0.00 0.00 0.00 0.00 0.00 0.00 0.00 0.00 0.00 0.00 0.00 0.00 0.00 0.00 0.01 0.01 0.03 0.05 0.09 0.17 0.21 0.19 0.13 0.21 0.18 0.20 0.24 0.33 0.23 0.29 0.24 0.18 0.13 0.11 0.10 0.08 0.08 0.11 0.09 0.07 0.04 0.06 0.10
0.00 0.00 0.00 0.00 0.00 0.00 0.00 0.00 0.00 0.00 0.00 0.00 0.00 0.00 0.00 0.00 0.00 0.00 0.00 0.00 0.00 0.00 0.00 0.00 0.00 0.00 0.02 0.05 0.10 0.14 0.17 0.16 0.12 0.14 0.17 0.19 0.23 0.25 0.20 0.24 0.23 0.24 0.16 0.11 0.09 0.08 0.06 0.06 0.08 0.09 0.05 0.05
0.00 0.00 0.00 0.00 0.00 0.00 0.00 0.00 0.00 0.00 0.00 0.00 0.00 0.00 0.00 0.00 0.00 0.00 0.00 0.00 0.00 0.00 0.00 0.00 0.00 0.00 0.00 0.02 0.07 0.11 0.13 0.16 0.16 0.12 0.10 0.13 0.13 0.19 0.26 0.23 0.18 0.17 0.16 0.16 0.16 0.11 0.08 0.06 0.05 0.05 0.07 0.07
0.00 0.00 0.00 0.00 0.00 0.00 0.00 0.00 0.00 0.01 0.00 0.00 0.00 0.00 0.00 0.00 0.00 0.00 0.00 0.00 0.00 0.00 0.00 0.00 0.00 0.00 0.00 0.01 0.04 0.09 0.13 0.13 0.15 0.17 0.16 0.12 0.10 0.12 0.16 0.23 0.23 0.21 0.22 0.21 0.20 0.19 0.15 0.12 0.08 0.07 0.05 0.05
0.01 0.01 0.01 0.00 0.00 0.00 0.00 0.01 0.01 0.00 0.01 0.01 0.00 0.00 0.01 0.01 0.00 0.00 0.00 0.00 0.00 0.00 0.00 0.00 0.00 0.00 0.01 0.01 0.02 0.07 0.11 0.14 0.16 0.17 0.18 0.18 0.17 0.17 0.15 0.15 0.17 0.21 0.24 0.27 0.30 0.28 0.24 0.19 0.15 0.13 0.10 0.08
0.03 0.04 0.08 0.05 0.06 0.06 0.04 0.03 0.02 0.01 0.00 0.02 0.01 0.02 0.01 0.01 0.01 0.02 0.02 0.01 0.02 0.03 0.01 0.01 0.01 0.02 0.02 0.19 0.01 0.03 0.07 0.10 0.14 0.18 0.21 0.22 0.24 0.23 0.21 0.18 0.12 0.15 0.25 0.50 0.39 0.30 0.25 0.19 0.17 0.17 0.15 0.14
0.00 0.00 0.01 0.03 0.08 0.14 0.12 0.23 0.16 0.11 0.11 0.06 0.06 0.03 0.02 0.02 0.02 0.02 0.03 0.03 0.06 0.07 0.05 0.11 0.08 0.07 0.09 0.06 0.03 0.03 0.05 0.08 0.11 0.13 0.16 0.19 0.21 0.23 0.21 0.19 0.16 0.22 0.23 0.30 0.31 0.25 0.24 0.23 0.18 0.15 0.15 0.14
0.00 0.00 0.00 0.00 0.00 0.00 0.01 0.03 0.06 0.13 0.08 0.15 0.13 0.07 0.07 0.08 0.15 0.13 0.07 0.06 0.03 0.04 0.05 0.04 0.10 0.09 0.04 0.04 0.03 0.05 0.06 0.06 0.08 0.11 0.13 0.15 0.17 0.19 0.19 0.19 0.20 0.16 0.18 0.21 0.25 0.33 0.38 0.41 0.27 0.20 0.12 0.07
0.00 0.00 0.01 0.01 0.00 0.01 0.01 0.01 0.00 0.01 0.02 0.05 0.08 0.07 0.13 0.09 0.07 0.11 0.07 0.03 0.05 0.04 0.11 0.07 0.04 0.07 0.11 0.07 0.05 0.06 0.07 0.06 0.06 0.06 0.10 0.12 0.14 0.16 0.19 0.19 0.14 0.13 0.14 0.15 0.19 0.35 0.32 0.40 0.38 0.32 0.26 0.12
0.00 0.00 0.01 0.00 0.01 0.01 0.00 0.01 0.00 0.01 0.00 0.00 0.00 0.01 0.02 0.03 0.03 0.03 0.03 0.04 0.04 0.03 0.03 0.04 0.07 0.07 0.03 0.04 0.06 0.05 0.05 0.05 0.06 0.08 0.07 0.08 0.11 0.15 0.16 0.17 0.18 0.16 0.11 0.12 0.16 0.24 0.35 0.37 0.28 0.21 0.13 0.11
0.00 0.00 0.00 0.01 0.01 0.01 0.01 0.00 0.00 0.00 0.00 0.00 0.01 0.00 0.00 0.01 0.01 0.02 0.04 0.02 0.02 0.04 0.05 0.05 0.08 0.06 0.06 0.07 0.07 0.06 0.06 0.06 0.06 0.06 0.22 0.24 0.13 0.13 0.14 0.15 0.19 0.18 0.15 0.10 0.12 0.19 0.23 0.22 0.25 0.22 0.15 0.12

ECMWFFLT2_prec_precacc_051.txt.gz
Total_Precipitation_Accumulation
0.02 0.02 0.02 0.02 0.06 0.06 0.05 0.09 0.19 0.17 0.19 0.29 0.24 0.17 0.14 0.14 0.11 0.21 0.22 0.43 0.46 0.48 0.59 0.82 0.58 0.62 0.65 0.74 0.90 1.08 1.04 1.02 1.05 0.83 0.77 0.63 0.58 0.56 0.60 0.56 0.45 0.54 0.40 0.54 0.43 0.34 0.63 0.56 0.29 0.17 0.14 0.09
0.03 0.03 0.03 0.03 0.02 0.03 0.03 0.05 0.07 0.06 0.06 0.07 0.12 0.12 0.13 0.18 0.11 0.10 0.20 0.17 0.22 0.34 0.43 0.61 0.60 0.68 0.66 0.76 0.72 0.76 0.79 0.91 0.88 0.89 0.82 0.70 0.60 0.58 0.56 0.60 0.65 0.67 0.50 0.39 0.34 0.45 0.40 0.71 0.42 0.27 0.16 0.09
0.04 0.02 0.03 0.04 0.08 0.07 0.07 0.08 0.06 0.02 0.10 0.08 0.01 0.02 0.03 0.05 0.17 0.13 0.05 0.12 0.18 0.18 0.33 0.30 0.26 0.45 0.78 1.11 0.71 0.72 0.67 0.58 0.73 0.77 0.81 0.74 0.70 0.71 0.63 0.60 0.58 0.65 0.63 0.53 0.44 0.49 0.48 0.55 0.53 0.26 0.17 0.14
0.01 0.01 0.01 0.01 0.02 0.04 0.04 0.03 0.03 0.02 0.01 0.00 0.00 0.00 0.01 0.04 0.07 0.14 0.08 0.09 0.10 0.30 0.12 0.26 0.16 0.25 0.40 0.43 0.62 0.72 0.77 0.62 0.63 0.58 0.61 0.68 0.67 0.68 0.72 0.69 0.75 0.83 0.76 0.80 0.57 0.43 0.43 0.52 0.69 0.35 0.17 0.13
0.03 0.02 0.02 0.03 0.02 0.01 0.02 0.03 0.03 0.02 0.09 0.02 0.01 0.01 0.00 0.01 0.03 0.03 0.03 0.04 0.04 0.07 0.05 0.05 0.15 0.15 0.30 0.29 0.32 0.34 0.46 0.64 0.65 0.64 0.55 0.53 0.53 0.57 0.65 0.75 0.86 0.80 0.85 0.80 0.61 0.42 0.44 0.45 0.48 0.37 0.18 0.15
0.00 0.01 0.01 0.03 0.03 0.03 0.02 0.02 0.07 0.07 0.12 0.09 0.09 0.14 0.03 0.01 0.00 0.02 0.03 0.03 0.02 0.04 0.05 0.06 0.04 0.09 0.07 0.13 0.22 0.26 0.46 0.43 0.47 0.52 0.55 0.58 0.59 0.48 0.55 0.66 0.76 0.90 0.83 0.88 0.71 0.81 0.57 0.44 0.46 0.51 0.27 0.18
0.00 0.00 0.00 0.00 0.02 0.02 0.02 0.05 0.02 0.14 0.12 0.16 0.13 0.11 0.10 0.06 0.02 0.01 0.02 0.03 0.03 0.06 0.03 0.01 0.04 0.07 0.07 0.10 0.15 0.22 0.15 0.45 0.38 0.48 0.37 0.47 0.47 0.46 0.50 0.61 0.63 0.94 0.90 0.88 0.58 0.61 0.60 0.56 0.46 0.40 0.32 0.25
0.00 0.00 0.00 0.00 0.01 0.02 0.02 0.02 0.03 0.05 0.07 0.17 0.07 0.18 0.11 0.13 0.11 0.07 0.05 0.03 0.05 0.10 0.06 0.08 0.03 0.07 0.11 0.08 0.06 0.05 0.12 0.17 0.17 0.27 0.37 0.46 0.41 0.37 0.39 0.54 0.62 0.67 1.06 0.86 0.73 0.55 0.58 0.57 0.47 0.38 0.34 0.27
0.00 0.00 0.00 0.00 0.00 0.01 0.01 0.02 0.01 0.02 0.02 0.02 0.05 0.07 0.11 0.09 0.13 0.07 0.07 0.04 0.02 0.02 0.03 0.08 0.05 0.08 0.06 0.06 0.07 0.05 0.15 0.14 0.14 0.19 0.36 0.28 0.38 0.43 0.47 0.43 0.49 0.63 0.89 0.87 0.79 0.69 0.58 0.60 0.53 0.40 0.36 0.31
0.00 0.00 0.00 0.00 0.00 0.00 0.01 0.02 0.01 0.03 0.02 0.02 0.02 0.03 0.03 0.18 0.06 0.09 0.06 0.07 0.03 0.01 0.01 0.02 0.06 0.03 0.09 0.09 0.09 0.24 0.11 0.10 0.13 0.21 0.24 0.34 0.35 0.40 0.37 0.45 0.46 0.49 0.61 0.79 0.86 0.82 0.67 0.61 0.53 0.49 0.36 0.31
0.00 0.00 0.00 0.00 0.00 0.00 0.00 0.01 0.01 0.01 0.02 0.03 0.04 0.18 0.14 0.05 0.14 0.26 0.09 0.11 0.16 0.11 0.08 0.04 0.05 0.05 0.08 0.06 0.04 0.06 0.12 0.06 0.16 0.10 0.11 0.11 0.14 0.27 0.34 0.36 0.36 0.50 0.53 0.57 0.65 0.77 0.87 0.76 0.62 0.52 0.45 0.33
0.00 0.00 0.00 0.00 0.00 0.00 0.00 0.01 0.01 0.00 0.02 0.02 0.04 0.06 0.09 0.08 0.06 0.08 0.06 0.18 0.10 0.11 0.26 0.11 0.20 0.12 0.05 0.02 0.06 0.04 0.08 0.06 0.03 0.12 0.11 0.09 0.06 0.11 0.20 0.30 0.35 0.41 0.46 0.57 0.55 0.58 0.70 0.78 0.68 0.59 0.53 0.42
0.00 0.00 0.00 0.00 0.00 0.00 0.00 0.00 0.00 0.01 0.01 0.03 0.05 0.03 0.05 0.07 0.09 0.15 0.17 0.12 0.06 0.20 0.14 0.05 0.05 0.11 0.09 0.04 0.11 0.19 0.03 0.02 0.01 0.04 0.07 0.04 0.05 0.09 0.13 0.17 0.26 0.35 0.37 0.47 0.59 0.56 0.55 0.63 0.67 0.62 0.60 0.49
0.00 0.00 0.00 0.00 0.00 0.00 0.00 0.00 0.00 0.00 0.00 0.00 0.00 0.04 0.20 0.09 0.17 0.08 0.23 0.23 0.18 0.18 0.31 0.11 0.16 0.21 0.17 0.16 0.10 0.05 0.04 0.04 0.03 0.05 0.05 0.05 0.03 0.06 0.06 0.07 0.11 0.23 0.33 0.35 0.43 0.55 0.56 0.51 0.54 0.61 0.59 0.58
0.00 0.00 0.00 0.00 0.00 0.00 0.00 0.00 0.00 0.00 0.00 0.00 0.00 0.00 0.02 0.08 0.15 0.21 0.16 0.28 0.14 0.20 0.09 0.13 0.08 0.09 0.14 0.21 0.06 0.29 0.05 0.11 0.08 0.05 0.04 0.04 0.04 0.10 0.03 0.03 0.09 0.09 0.11 0.23 0.31 0.41 0.48 0.55 0.50 0.46 0.60 0.57
0.00 0.00 0.00 0.00 0.00 0.00 0.00 0.00 0.00 0.00 0.00 0.00 0.00 0.00 0.00 0.00 0.04 0.05 0.20 0.29 0.18 0.23 0.24 0.26 0.19 0.15 0.13 0.10 0.14 0.11 0.08 0.06 0.03 0.08 0.20 0.17 0.06 0.08 0.04 0.03 0.02 0.07 0.07 0.08 0.15 0.27 0.34 0.43 0.51 0.49 0.49 0.49
0.00 0.00 0.00 0.00 0.00 0.00 0.00 0.00 0.00 0.00 0.00 0.00 0.00 0.00 0.00 0.00 0.00 0.00 0.01 0.03 0.18 0.20 0.22 0.22 0.27 0.25 0.16 0.14 0.20 0.22 0.15 0.22 0.24 0.18 0.06 0.06 0.07 0.13 0.09 0.14 0.06 0.09 0.07 0.06 0.07 0.08 0.17 0.34 0.37 0.43 0.49 0.43
0.00 0.00 0.00 0.00 0.00 0.00 0.00 0.00 0.00 0.00 0.00 0.00 0.00 0.00 0.00 0.00 0.00 0.00 0.00 0.00 0.02 0.08 0.15 0.27 0.22 0.27 0.21 0.18 0.24 0.22 0.12 0.20 0.21 0.24 0.18 0.22 0.11 0.12 0.16 0.12 0.09 0.07 0.07 0.06 0.06 0.08 0.08 0.09 0.26 0.29 0.33 0.44
0.00 0.00 0.00 0.00 0.00 0.00 0.00 0.00 0.00 0.00 0.00 0.00 0.00 0.00 0.00 0.00 0.00 0.00 0.00 0.00 0.00 0.01 0.03 0.08 0.18 0.18 0.24 0.22 0.17 0.17 0.18 0.19 0.16 0.33 0.24 0.37 0.16 0.15 0.13 0.10 0.09 0.12 0.14 0.13 0.07 0.06 0.06 0.07 0.11 0.18 0.27 0.27
0.00 0.00 0.00 0.00 0.00 0.00 0.00 0.00 0.00 0.00 0.00 0.00 0.00 0.00 0.00 0.00 0.00 0.00 0.00 0.00 0.00 0.00 0.01 0.01 0.07 0.08 0.14 0.25 0.18 0.22 0.22 0.25 0.20 0.17 0.28 0.25 0.22 0.22 0.18 0.17 0.14 0.12 0.10 0.09 0.11 0.09 0.06 0.05 0.06 0.09 0.13 0.19
0.00 0.00 0.00 0.00 0.00 0.00 0.00 0.00 0.00 0.00 0.00 0.00 0.00 0.00 0.00 0.00 0.00 0.00 0.00 0.00 0.00 0.00 0.00 0.01 0.01 0.03 0.05 0.09 0.17 0.21 0.19 0.13 0.21 0.18 0.20 0.24 0.33 0.23 0.29 0.24 0.18 0.13 0.11 0.10 0.08 0.08 0.11 0.09 0.07 0.05 0.07 0.11
0.00 0.00 0.00 0.00 0.00 0.00 0.00 0.00 0.00 0.00 0.00 0.00 0.00 0.00 0.00 0.00 0.00 0.00 0.00 0.00 0.00 0.00 0.00 0.00 0.00 0.00 0.02 0.05 0.10 0.14 0.17 0.16 0.12 0.14 0.17 0.19 0.23 0.25 0.20 0.24 0.23 0.24 0.16 0.11 0.09 0.08 0.06 0.06 0.09 0.10 0.05 0.06
0.00 0.00 0.00 0.00 0.00 0.00 0.00 0.00 0.00 0.00 0.00 0.00 0.00 0.00 0.00 0.00 0.00 0.00 0.00 0.00 0.00 0.00 0.00 0.00 0.00 0.00 0.00 0.02 0.07 0.11 0.13 0.16 0.16 0.12 0.10 0.13 0.13 0.19 0.26 0.23 0.18 0.17 0.16 0.16 0.16 0.11 0.08 0.06 0.05 0.05 0.07 0.07
0.00 0.00 0.00 0.00 0.00 0.00 0.00 0.00 0.00 0.01 0.00 0.00 0.00 0.00 0.00 0.00 0.00 0.00 0.00 0.00 0.00 0.00 0.00 0.00 0.00 0.00 0.00 0.01 0.04 0.09 0.13 0.13 0.15 0.17 0.16 0.12 0.10 0.12 0.16 0.23 0.23 0.21 0.22 0.21 0.20 0.19 0.15 0.12 0.08 0.07 0.05 0.05
0.01 0.01 0.01 0.00 0.00 0.00 0.00 0.01 0.01 0.00 0.01 0.01 0.00 0.00 0.01 0.01 0.00 0.00 0.00 0.00 0.00 0.00 0.00 0.00 0.00 0.00 0.01 0.01 0.02 0.07 0.11 0.14 0.16 0.17 0.18 0.18 0.17 0.17 0.15 0.15 0.17 0.21 0.24 0.27 0.30 0.28 0.24 0.19 0.15 0.13 0.10 0.08
0.03 0.04 0.08 0.05 0.06 0.06 0.04 0.03 0.02 0.01 0.00 0.02 0.01 0.02 0.01 0.01 0.01 0.02 0.02 0.01 0.02 0.03 0.01 0.01 0.01 0.02 0.02 0.19 0.01 0.03 0.07 0.10 0.14 0.18 0.21 0.22 0.24 0.23 0.21 0.18 0.12 0.15 0.25 0.50 0.39 0.30 0.25 0.19 0.17 0.17 0.15 0.14
0.00 0.00 0.01 0.03 0.08 0.14 0.12 0.23 0.16 0.11 0.11 0.06 0.06 0.03 0.02 0.02 0.02 0.02 0.03 0.03 0.06 0.07 0.05 0.11 0.08 0.07 0.09 0.06 0.03 0.03 0.05 0.08 0.11 0.13 0.16 0.19 0.21 0.23 0.21 0.19 0.16 0.22 0.23 0.30 0.31 0.25 0.24 0.23 0.18 0.15 0.15 0.14
0.00 0.00 0.00 0.00 0.00 0.00 0.01 0.03 0.06 0.13 0.08 0.15 0.13 0.07 0.07 0.08 0.15 0.13 0.07 0.06 0.03 0.04 0.05 0.04 0.10 0.09 0.04 0.04 0.03 0.05 0.06 0.06 0.08 0.11 0.13 0.15 0.17 0.19 0.19 0.20 0.20 0.16 0.18 0.21 0.25 0.33 0.38 0.41 0.27 0.20 0.12 0.07
0.00 0.00 0.01 0.01 0.00 0.01 0.01 0.01 0.00 0.01 0.02 0.05 0.08 0.07 0.13 0.09 0.07 0.11 0.07 0.03 0.05 0.04 0.11 0.07 0.04 0.07 0.11 0.07 0.05 0.06 0.07 0.06 0.06 0.06 0.10 0.12 0.14 0.16 0.19 0.19 0.14 0.13 0.14 0.15 0.19 0.35 0.32 0.40 0.38 0.32 0.26 0.12
0.00 0.00 0.01 0.00 0.01 0.01 0.00 0.01 0.00 0.01 0.00 0.00 0.00 0.01 0.02 0.03 0.03 0.03 0.03 0.04 0.04 0.03 0.03 0.04 0.07 0.07 0.03 0.04 0.06 0.05 0.05 0.05 0.06 0.08 0.07 0.08 0.11 0.15 0.16 0.17 0.18 0.16 0.11 0.12 0.16 0.24 0.35 0.37 0.28 0.21 0.13 0.11
0.00 0.00 0.00 0.01 0.01 0.01 0.01 0.00 0.00 0.00 0.00 0.00 0.01 0.00 0.00 0.01 0.01 0.02 0.04 0.02 0.02 0.04 0.05 0.05 0.08 0.06 0.06 0.07 0.07 0.06 0.06 0.06 0.06 0.06 0.22 0.24 0.13 0.13 0.14 0.15 0.19 0.18 0.15 0.10 0.12 0.19 0.23 0.22 0.25 0.22 0.15 0.12

ECMWFFLT2_prec_precacc_054.txt.gz
Total_Precipitation_Accumulation
0.02 0.02 0.02 0.02 0.06 0.06 0.05 0.09 0.19 0.17 0.19 0.29 0.24 0.17 0.14 0.14 0.11 0.21 0.22 0.43 0.46 0.48 0.59 0.82 0.58 0.62 0.65 0.74 0.91 1.08 1.06 1.04 1.08 0.86 0.80 0.66 0.62 0.61 0.66 0.62 0.52 0.63 0.46 0.59 0.47 0.37 0.67 0.60 0.35 0.28 0.30 0.26
0.03 0.03 0.03 0.03 0.02 0.03 0.03 0.05 0.07 0.06 0.06 0.07 0.12 0.12 0.13 0.18 0.11 0.10 0.20 0.17 0.22 0.34 0.43 0.61 0.60 0.68 0.66 0.76 0.72 0.76 0.79 0.92 0.90 0.92 0.85 0.74 0.65 0.64 0.62 0.67 0.72 0.75 0.57 0.45 0.38 0.48 0.45 0.77 0.48 0.36 0.29 0.28
0.04 0.02 0.03 0.04 0.08 0.07 0.07 0.08 0.06 0.02 0.10 0.08 0.01 0.02 0.03 0.05 0.17 0.13 0.05 0.12 0.18 0.18 0.33 0.30 0.26 0.45 0.78 1.11 0.71 0.72 0.67 0.58 0.73 0.79 0.85 0.79 0.76 0.77 0.69 0.66 0.65 0.73 0.72 0.63 0.51 0.56 0.55 0.65 0.63 0.36 0.27 0.30
0.01 0.01 0.01 0.01 0.02 0.04 0.04 0.03 0.03 0.02 0.01 0.00 0.00 0.00 0.01 0.04 0.07 0.14 0.08 0.09 0.10 0.30 0.12 0.26 0.16 0.25 0.40 0.43 0.62 0.72 0.77 0.62 0.63 0.58 0.63 0.71 0.72 0.73 0.77 0.74 0.81 0.92 0.88 0.92 0.69 0.54 0.53 0.63 0.82 0.50 0.29 0.25
0.03 0.02 0.02 0.03 0.02 0.01 0.02 0.03 0.03 0.02 0.09 0.02 0.01 0.01 0.00 0.01 0.03 0.03 0.03 0.04 0.04 0.07 0.05 0.05 0.15 0.15 0.30 0.29 0.32 0.34 0.46 0.64 0.65 0.64 0.55 0.54 0.56 0.61 0.69 0.79 0.90 0.87 0.97 0.96 0.76 0.56 0.58 0.59 0.63 0.54 0.36 0.30
0.00 0.01 0.01 0.03 0.03 0.03 0.02 0.02 0.07 0.07 0.12 0.09 0.09 0.14 0.03 0.01 0.00 0.02 0.03 0.03 0.02 0.04 0.05 0.06 0.04 0.09 0.07 0.13 0.22 0.26 0.46 0.43 0.47 0.52 0.55 0.58 0.59 0.50 0.57 0.68 0.80 0.95 0.91 1.01 0.89 1.00 0.74 0.60 0.62 0.68 0.44 0.38
0.00 0.00 0.00 0.00 0.02 0.02 0.02 0.05 0.02 0.14 0.12 0.16 0.13 0.11 0.10 0.06 0.02 0.01 0.02 0.03 0.03 0.06 0.03 0.01 0.04 0.07 0.07 0.10 0.15 0.22 0.15 0.45 0.38 0.48 0.37 0.47 0.47 0.46 0.51 0.63 0.66 0.98 0.96 0.97 0.70 0.78 0.79 0.75 0.63 0.57 0.50 0.44
0.00 0.00 0.00 0.00 0.01 0.02 0.02 0.02 0.03 0.05 0.07 0.17 0.07 0.18 0.11 0.13 0.11 0.07 0.05 0.03 0.05 0.10 0.06 0.08 0.03 0.07 0.11 0.08 0.06 0.05 0.12 0.17 0.17 0.27 0.37 0.46 0.41 0.38 0.39 0.55 0.64 0.70 1.11 0.93 0.82 0.68 0.74 0.76 0.67 0.57 0.53 0.47
0.00 0.00 0.00 0.00 0.00 0.01 0.01 0.02 0.01 0.02 0.02 0.02 0.05 0.07 0.11 0.09 0.13 0.07 0.07 0.04 0.02 0.02 0.03 0.08 0.05 0.08 0.06 0.06 0.07 0.05 0.15 0.14 0.14 0.19 0.36 0.28 0.38 0.43 0.48 0.43 0.50 0.65 0.92 0.92 0.87 0.79 0.72 0.76 0.72 0.61 0.56 0.51
0.00 0.00 0.00 0.00 0.00 0.00 0.01 0.02 0.01 0.03 0.02 0.02 0.02 0.03 0.03 0.18 0.06 0.09 0.06 0.07 0.03 0.01 0.01 0.02 0.06 0.03 0.09 0.09 0.09 0.24 0.11 0.10 0.13 0.21 0.24 0.34 0.35 0.40 0.37 0.45 0.46 0.50 0.64 0.83 0.92 0.90 0.78 0.76 0.70 0.67 0.58 0.51
0.00 0.00 0.00 0.00 0.00 0.00 0.00 0.01 0.01 0.01 0.02 0.03 0.04 0.18 0.14 0.05 0.14 0.26 0.09 0.11 0.16 0.11 0.08 0.04 0.05 0.05 0.08 0.06 0.04 0.06 0.12 0.06 0.16 0.10 0.11 0.11 0.14 0.27 0.34 0.37 0.37 0.50 0.55 0.60 0.68 0.82 0.95 0.87 0.76 0.68 0.63 0.53
0.00 0.00 0.00 0.00 0.00 0.00 0.00 0.01 0.01 0.00 0.02 0.02 0.04 0.06 0.09 0.08 0.06 0.08 0.06 0.18 0.10 0.11 0.26 0.11 0.20 0.12 0.05 0.02 0.06 0.04 0.08 0.06 0.03 0.12 0.11 0.09 0.06 0.11 0.20 0.30 0.35 0.42 0.46 0.58 0.58 0.62 0.76 0.87 0.79 0.73 0.70 0.60
0.00 0.00 0.00 0.00 0.00 0.00 0.00 0.00 0.00 0.01 0.01 0.03 0.05 0.03 0.05 0.07 0.09 0.15 0.17 0.12 0.06 0.20 0.14 0.05 0.05 0.11 0.09 0.04 0.11 0.19 0.03 0.02 0.01 0.04 0.07 0.04 0.05 0.09 0.13 0.17 0.27 0.35 0.38 0.47 0.60 0.58 0.59 0.69 0.75 0.73 0.74 0.65
0.00 0.00 0.00 0.00 0.00 0.00 0.00 0.00 0.00 0.00 0.00 0.00 0.00 0.04 0.20 0.09 0.17 0.08 0.23 0.23 0.18 0.18 0.31 0.11 0.16 0.21 0.17 0.16 0.10 0.05 0.04 0.04 0.03 0.05 0.05 0.05 0.03 0.06 0.06 0.07 0.11 0.23 0.33 0.35 0.44 0.56 0.59 0.55 0.60 0.69 0.69 0.71
0.00 0.00 0.00 0.00 0.00 0.00 0.00 0.00 0.00 0.00 0.00 0.00 0.00 0.00 0.02 0.08 0.15 0.21 0.16 0.28 0.14 0.20 0.09 0.13 0.08 0.09 0.14 0.21 0.06 0.29 0.05 0.11 0.08 0.05 0.04 0.04 0.04 0.10 0.03 0.03 0.09 0.09 0.12 0.23 0.32 0.42 0.49 0.57 0.54 0.51 0.68 0.67
0.00 0.00 0.00 0.00 0.00 0.00 0.00 0.00 0.00 0.00 0.00 0.00 0.00 0.00 0.00 0.00 0.04 0.05 0.20 0.29 0.18 0.23 0.24 0.26 0.19 0.15 0.13 0.10 0.14 0.11 0.08 0.06 0.03 0.08 0.20 0.17 0.06 0.08 0.04 0.03 0.02 0.07 0.07 0.08 0.15 0.28 0.35 0.44 0.53 0.53 0.54 0.56
0.00 0.00 0.00 0.00 0.00 0.00 0.00 0.00 0.00 0.00 0.00 0.00 0.00 0.00 0.00 0.00 0.00 0.00 0.01 0.03 0.18 0.20 0.22 0.22 0.27 0.25 0.16 0.14 0.20 0.22 0.15 0.22 0.24 0.18 0.06 0.06 0.07 0.13 0.09 0.14 0.06 0.09 0.07 0.06 0.08 0.08 0.17 0.34 0.38 0.45 0.52 0.48
0.00 0.00 0.00 0.00 0.00 0.00 0.00 0.00 0.00 0.00 0.00 0.00 0.00 0.00 0.00 0.00 0.00 0.00 0.00 0.00 0.02 0.08 0.15 0.27 0.22 0.27 0.21 0.18 0.24 0.22 0.12 0.20 0.21 0.24 0.18 0.22 0.11 0.12 0.16 0.12 0.09 0.07 0.07 0.06 0.06 0.08 0.09 0.10 0.27 0.30 0.34 0.47
0.00 0.00 0.00 0.00 0.00 0.00 0.00 0.00 0.00 0.00 0.00 0.00 0.00 0.00 0.00 0.00 0.00 0.00 0.00 0.00 0.00 0.01 0.03 0.08 0.18 0.18 0.24 0.22 0.17 0.17 0.18 0.19 0.16 0.33 0.24 0.37 0.16 0.15 0.13 0.10 0.09 0.12 0.14 0.13 0.07 0.06 0.06 0.08 0.12 0.19 0.28 0.28
0.00 0.00 0.00 0.00 0.00 0.00 0.00 0.00 0.00 0.00 0.00 0.00 0.00 0.00 0.00 0.00 0.00 0.00 0.00 0.00 0.00 0.00 0.01 0.01 0.07 0.08 0.14 0.25 0.18 0.22 0.22 0.25 0.20 0.17 0.28 0.25 0.22 0.22 0.18 0.17 0.14 0.12 0.10 0.09 0.11 0.09 0.06 0.05 0.06 0.10 0.14 0.20
0.00 0.00 0.00 0.00 0.00 0.00 0.00 0.00 0.00 0.00 0.00 0.00 0.00 0.00 0.00 0.00 0.00 0.00 0.00 0.00 0.00 0.00 0.00 0.01 0.01 0.03 0.05 0.09 0.17 0.21 0.19 0.13 0.21 0.18 0.20 0.24 0.33 0.23 0.29 0.24 0.18 0.13 0.11 0.10 0.08 0.08 0.11 0.09 0.07 0.05 0.07 0.12
0.00 0.00 0.00 0.00 0.00 0.00 0.00 0.00 0.00 0.00 0.00 0.00 0.00 0.00 0.00 0.00 0.00 0.00 0.00 0.00 0.00 0.00 0.00 0.00 0.00 0.00 0.02 0.05 0.10 0.14 0.17 0.16 0.12 0.14 0.17 0.19 0.23 0.25 0.20 0.24 0.23 0.24 0.16 0.11 0.09 0.08 0.06 0.06 0.09 0.10 0.05 0.06
0.00 0.00 0.00 0.00 0.00 0.00 0.00 0.00 0.00 0.00 0.00 0.00 0.00 0.00 0.00 0.00 0.00 0.00 0.00 0.00 0.00 0.00 0.00 0.00 0.00 0.00 0.00 0.02 0.07 0.11 0.13 0.16 0.16 0.12 0.10 0.13 0.13 0.19 0.26 0.23 0.18 0.17 0.16 0.16 0.16 0.11 0.08 0.06 0.05 0.05 0.07 0.07
0.00 0.00 0.00 0.00 0.00 0.00 0.00 0.00 0.00 0.01 0.00 0.00 0.00 0.00 0.00 0.00 0.00 0.00 0.00 0.00 0.00 0.00 0.00 0.00 0.00 0.00 0.00 0.01 0.04 0.09 0.13 0.13 0.15 0.17 0.16 0.12 0.10 0.12 0.16 0.23 0.23 0.21 0.22 0.21 0.20 0.19 0.15 0.12 0.08 0.07 0.05 0.05
0.01 0.01 0.01 0.00 0.00 0.00 0.00 0.01 0.01 0.00 0.01 0.01 0.00 0.00 0.01 0.01 0.00 0.00 0.00 0.00 0.00 0.00 0.00 0.00 0.00 0.00 0.01 0.01 0.02 0.07 0.11 0.14 0.16 0.17 0.18 0.18 0.17 0.17 0.15 0.15 0.17 0.21 0.24 0.27 0.30 0.28 0.24 0.19 0.15 0.13 0.10 0.09
0.03 0.04 0.08 0.05 0.06 0.06 0.04 0.03 0.02 0.01 0.00 0.02 0.01 0.02 0.01 0.01 0.01 0.02 0.02 0.01 0.02 0.03 0.01 0.01 0.01 0.02 0.02 0.19 0.01 0.03 0.07 0.10 0.14 0.18 0.21 0.22 0.24 0.23 0.21 0.18 0.12 0.15 0.25 0.50 0.39 0.30 0.25 0.19 0.17 0.17 0.16 0.14
0.00 0.00 0.01 0.03 0.08 0.14 0.12 0.23 0.16 0.11 0.11 0.06 0.06 0.03 0.02 0.02 0.02 0.02 0.03 0.03 0.06 0.07 0.05 0.11 0.08 0.07 0.09 0.06 0.03 0.03 0.05 0.08 0.11 0.13 0.16 0.19 0.21 0.23 0.21 0.19 0.16 0.22 0.23 0.30 0.31 0.25 0.24 0.23 0.18 0.15 0.15 0.14
0.00 0.00 0.00 0.00 0.00 0.00 0.01 0.03 0.06 0.13 0.08 0.15 0.13 0.07 0.07 0.08 0.15 0.13 0.07 0.06 0.03 0.04 0.05 0.04 0.10 0.09 0.04 0.04 0.03 0.05 0.06 0.06 0.08 0.11 0.13 0.15 0.17 0.19 0.19 0.20 0.20 0.16 0.18 0.21 0.25 0.33 0.38 0.41 0.27 0.20 0.12 0.07
0.00 0.00 0.01 0.01 0.00 0.01 0.01 0.01 0.00 0.01 0.02 0.05 0.08 0.07 0.13 0.09 0.07 0.11 0.07 0.03 0.05 0.04 0.11 0.07 0.04 0.07 0.11 0.07 0.05 0.06 0.07 0.06 0.06 0.06 0.10 0.12 0.14 0.16 0.19 0.19 0.14 0.13 0.14 0.15 0.19 0.35 0.32 0.40 0.38 0.32 0.26 0.12
0.00 0.00 0.01 0.00 0.01 0.01 0.00 0.01 0.00 0.01 0.00 0.00 0.00 0.01 0.02 0.03 0.03 0.03 0.03 0.04 0.04 0.03 0.03 0.04 0.07 0.07 0.03 0.04 0.06 0.05 0.05 0.05 0.06 0.08 0.07 0.08 0.11 0.15 0.16 0.17 0.18 0.16 0.11 0.12 0.16 0.24 0.35 0.37 0.28 0.21 0.13 0.11
0.00 0.00 0.00 0.01 0.01 0.01 0.01 0.00 0.00 0.00 0.00 0.00 0.01 0.00 0.00 0.01 0.01 0.02 0.04 0.02 0.02 0.04 0.05 0.05 0.08 0.06 0.06 0.07 0.07 0.06 0.06 0.06 0.06 0.06 0.22 0.24 0.13 0.13 0.14 0.15 0.19 0.18 0.15 0.10 0.12 0.19 0.23 0.22 0.25 0.22 0.15 0.12

ECMWFFLT2_prec_precacc_057.txt.gz
Total_Precipitation_Accumulation
0.02 0.02 0.02 0.02 0.06 0.06 0.05 0.09 0.19 0.17 0.19 0.29 0.24 0.17 0.14 0.14 0.11 0.21 0.22 0.43 0.46 0.48 0.59 0.82 0.58 0.62 0.65 0.74 0.91 1.08 1.06 1.04 1.08 0.86 0.80 0.66 0.62 0.61 0.66 0.62 0.53 0.64 0.47 0.59 0.47 0.37 0.67 0.60 0.36 0.29 0.31 0.26
0.03 0.03 0.03 0.03 0.02 0.03 0.03 0.05 0.07 0.06 0.06 0.07 0.12 0.12 0.13 0.18 0.11 0.10 0.20 0.17 0.22 0.34 0.43 0.61 0.60 0.68 0.66 0.76 0.72 0.76 0.79 0.92 0.90 0.92 0.85 0.74 0.65 0.64 0.62 0.67 0.73 0.75 0.59 0.45 0.39 0.49 0.45 0.78 0.49 0.37 0.30 0.29
0.04 0.02 0.03 0.04 0.08 0.07 0.07 0.08 0.06 0.02 0.10 0.08 0.01 0.02 0.03 0.05 0.17 0.13 0.05 0.12 0.18 0.18 0.33 0.30 0.26 0.45 0.78 1.11 0.71 0.72 0.67 0.58 0.73 0.79 0.85 0.79 0.76 0.77 0.69 0.66 0.66 0.73 0.72 0.63 0.53 0.57 0.56 0.65 0.64 0.37 0.29 0.32
0.01 0.01 0.01 0.01 0.02 0.04 0.04 0.03 0.03 0.02 0.01 0.00 0.00 0.00 0.01 0.04 0.07 0.14 0.08 0.09 0.10 0.30 0.12 0.26 0.16 0.25 0.40 0.43 0.62 0.72 0.77 0.62 0.63 0.58 0.63 0.71 0.72 0.73 0.77 0.74 0.81 0.92 0.88 0.93 0.69 0.55 0.53 0.63 0.82 0.50 0.31 0.28
0.03 0.02 0.02 0.03 0.02 0.01 0.02 0.03 0.03 0.02 0.09 0.02 0.01 0.01 0.00 0.01 0.03 0.03 0.03 0.04 0.04 0.07 0.05 0.05 0.15 0.15 0.30 0.29 0.32 0.34 0.46 0.64 0.65 0.64 0.55 0.54 0.56 0.61 0.69 0.79 0.90 0.87 0.97 0.96 0.77 0.57 0.58 0.60 0.63 0.54 0.37 0.33
0.00 0.01 0.01 0.03 0.03 0.03 0.02 0.02 0.07 0.07 0.12 0.09 0.09 0.14 0.03 0.01 0.00 0.02 0.03 0.03 0.02 0.04 0.05 0.06 0.04 0.09 0.07 0.13 0.22 0.26 0.46 0.43 0.47 0.52 0.55 0.58 0.59 0.50 0.57 0.68 0.80 0.95 0.91 1.01 0.90 1.01 0.75 0.60 0.63 0.69 0.45 0.39
0.00 0.00 0.00 0.00 0.02 0.02 0.02 0.05 0.02 0.14 0.12 0.16 0.13 0.11 0.10 0.06 0.02 0.01 0.02 0.03 0.03 0.06 0.03 0.01 0.04 0.07 0.07 0.10 0.15 0.22 0.15 0.45 0.38 0.48 0.37 0.47 0.47 0.46 0.51 0.63 0.66 0.98 0.96 0.97 0.70 0.78 0.80 0.76 0.64 0.58 0.51 0.45
0.00 0.00 0.00 0.00 0.01 0.02 0.02 0.02 0.03 0.05 0.07 0.17 0.07 0.18 0.11 0.13 0.11 0.07 0.05 0.03 0.05 0.10 0.06 0.08 0.03 0.07 0.11 0.08 0.06 0.05 0.12 0.17 0.17 0.27 0.37 0.46 0.41 0.38 0.39 0.55 0.64 0.70 1.11 0.93 0.83 0.69 0.75 0.78 0.69 0.59 0.54 0.48
0.00 0.00 0.00 0.00 0.00 0.01 0.01 0.02 0.01 0.02 0.02 0.02 0.05 0.07 0.11 0.09 0.13 0.07 0.07 0.04 0.02 0.02 0.03 0.08 0.05 0.08 0.06 0.06 0.07 0.05 0.15 0.14 0.14 0.19 0.36 0.28 0.38 0.43 0.48 0.43 0.50 0.65 0.92 0.92 0.87 0.80 0.73 0.77 0.73 0.63 0.58 0.53
0.00 0.00 0.00 0.00 0.00 0.00 0.01 0.02 0.01 0.03 0.02 0.02 0.02 0.03 0.03 0.18 0.06 0.09 0.06 0.07 0.03 0.01 0.01 0.02 0.06 0.03 0.09 0.09 0.09 0.24 0.11 0.10 0.13 0.21 0.24 0.34 0.35 0.40 0.37 0.45 0.46 0.50 0.64 0.83 0.92 0.90 0.78 0.76 0.71 0.69 0.60 0.53
0.00 0.00 0.00 0.00 0.00 0.00 0.00 0.01 0.01 0.01 0.02 0.03 0.04 0.18 0.14 0.05 0.14 0.26 0.09 0.11 0.16 0.11 0.08 0.04 0.05 0.05 0.08 0.06 0.04 0.06 0.12 0.06 0.16 0.10 0.11 0.11 0.14 0.27 0.34 0.37 0.37 0.50 0.55 0.60 0.69 0.82 0.95 0.88 0.77 0.70 0.65 0.55
0.00 0.00 0.00 0.00 0.00 0.00 0.00 0.01 0.01 0.00 0.02 0.02 0.04 0.06 0.09 0.08 0.06 0.08 0.06 0.18 0.10 0.11 0.26 0.11 0.20 0.12 0.05 0.02 0.06 0.04 0.08 0.06 0.03 0.12 0.11 0.09 0.06 0.11 0.20 0.30 0.35 0.42 0.46 0.58 0.58 0.62 0.76 0.87 0.80 0.74 0.71 0.62
0.00 0.00 0.00 0.00 0.00 0.00 0.00 0.00 0.00 0.01 0.01 0.03 0.05 0.03 0.05 0.07 0.09 0.15 0.17 0.12 0.06 0.20 0.14 0.05 0.05 0.11 0.09 0.04 0.11 0.19 0.03 0.02 0.01 0.04 0.07 0.04 0.05 0.09 0.13 0.17 0.27 0.35 0.38 0.47 0.60 0.58 0.60 0.70 0.76 0.74 0.75 0.67
0.00 0.00 0.00 0.00 0.00 0.00 0.00 0.00 0.00 0.00 0.00 0.00 0.00 0.04 0.20 0.09 0.17 0.08 0.23 0.23 0.18 0.18 0.31 0.11 0.16 0.21 0.17 0.16 0.10 0.05 0.04 0.04 0.03 0.05 0.05 0.05 0.03 0.06 0.06 0.07 0.11 0.23 0.33 0.35 0.44 0.56 0.59 0.55 0.61 0.70 0.70 0.72
0.00 0.00 0.00 0.00 0.00 0.00 0.00 0.00 0.00 0.00 0.00 0.00 0.00 0.00 0.02 0.08 0.15 0.21 0.16 0.28 0.14 0.20 0.09 0.13 0.08 0.09 0.14 0.21 0.06 0.29 0.05 0.11 0.08 0.05 0.04 0.04 0.04 0.10 0.03 0.03 0.09 0.09 0.12 0.23 0.32 0.42 0.49 0.57 0.54 0.52 0.69 0.68
0.00 0.00 0.00 0.00 0.00 0.00 0.00 0.00 0.00 0.00 0.00 0.00 0.00 0.00 0.00 0.00 0.04 0.05 0.20 0.29 0.18 0.23 0.24 0.26 0.19 0.15 0.13 0.10 0.14 0.11 0.08 0.06 0.03 0.08 0.20 0.17 0.06 0.08 0.04 0.03 0.02 0.07 0.07 0.08 0.15 0.28 0.35 0.44 0.53 0.53 0.55 0.57
0.00 0.00 0.00 0.00 0.00 0.00 0.00 0.00 0.00 0.00 0.00 0.00 0.00 0.00 0.00 0.00 0.00 0.00 0.01 0.03 0.18 0.20 0.22 0.22 0.27 0.25 0.16 0.14 0.20 0.22 0.15 0.22 0.24 0.18 0.06 0.06 0.07 0.13 0.09 0.14 0.06 0.09 0.07 0.06 0.08 0.08 0.17 0.34 0.38 0.45 0.53 0.49
0.00 0.00 0.00 0.00 0.00 0.00 0.00 0.00 0.00 0.00 0.00 0.00 0.00 0.00 0.00 0.00 0.00 0.00 0.00 0.00 0.02 0.08 0.15 0.27 0.22 0.27 0.21 0.18 0.24 0.22 0.12 0.20 0.21 0.24 0.18 0.22 0.11 0.12 0.16 0.12 0.09 0.07 0.07 0.06 0.06 0.08 0.09 0.10 0.27 0.30 0.35 0.47
0.00 0.00 0.00 0.00 0.00 0.00 0.00 0.00 0.00 0.00 0.00 0.00 0.00 0.00 0.00 0.00 0.00 0.00 0.00 0.00 0.00 0.01 0.03 0.08 0.18 0.18 0.24 0.22 0.17 0.17 0.18 0.19 0.16 0.33 0.24 0.37 0.16 0.15 0.13 0.10 0.09 0.12 0.14 0.13 0.07 0.06 0.06 0.08 0.12 0.19 0.28 0.29
0.00 0.00 0.00 0.00 0.00 0.00 0.00 0.00 0.00 0.00 0.00 0.00 0.00 0.00 0.00 0.00 0.00 0.00 0.00 0.00 0.00 0.00 0.01 0.01 0.07 0.08 0.14 0.25 0.18 0.22 0.22 0.25 0.20 0.17 0.28 0.25 0.22 0.22 0.18 0.17 0.14 0.12 0.10 0.09 0.11 0.09 0.06 0.05 0.06 0.10 0.14 0.20
0.00 0.00 0.00 0.00 0.00 0.00 0.00 0.00 0.00 0.00 0.00 0.00 0.00 0.00 0.00 0.00 0.00 0.00 0.00 0.00 0.00 0.00 0.00 0.01 0.01 0.03 0.05 0.09 0.17 0.21 0.19 0.13 0.21 0.18 0.20 0.24 0.33 0.23 0.29 0.24 0.18 0.13 0.11 0.10 0.08 0.08 0.11 0.09 0.07 0.05 0.07 0.12
0.00 0.00 0.00 0.00 0.00 0.00 0.00 0.00 0.00 0.00 0.00 0.00 0.00 0.00 0.00 0.00 0.00 0.00 0.00 0.00 0.00 0.00 0.00 0.00 0.00 0.00 0.02 0.05 0.10 0.14 0.17 0.16 0.12 0.14 0.17 0.19 0.23 0.25 0.20 0.24 0.23 0.24 0.16 0.11 0.09 0.08 0.06 0.06 0.09 0.10 0.05 0.06
0.00 0.00 0.00 0.00 0.00 0.00 0.00 0.00 0.00 0.00 0.00 0.00 0.00 0.00 0.00 0.00 0.00 0.00 0.00 0.00 0.00 0.00 0.00 0.00 0.00 0.00 0.00 0.02 0.07 0.11 0.13 0.16 0.16 0.12 0.10 0.13 0.13 0.19 0.26 0.23 0.18 0.17 0.16 0.16 0.16 0.11 0.08 0.06 0.05 0.05 0.07 0.07
0.00 0.00 0.00 0.00 0.00 0.00 0.00 0.00 0.00 0.01 0.00 0.00 0.00 0.00 0.00 0.00 0.00 0.00 0.00 0.00 0.00 0.00 0.00 0.00 0.00 0.00 0.00 0.01 0.04 0.09 0.13 0.13 0.15 0.17 0.16 0.12 0.10 0.12 0.16 0.23 0.23 0.21 0.22 0.21 0.20 0.19 0.15 0.12 0.08 0.07 0.05 0.05
0.01 0.01 0.01 0.00 0.00 0.00 0.00 0.01 0.01 0.00 0.01 0.01 0.00 0.00 0.01 0.01 0.00 0.00 0.00 0.00 0.00 0.00 0.00 0.00 0.00 0.00 0.01 0.01 0.02 0.07 0.11 0.14 0.16 0.17 0.18 0.18 0.17 0.17 0.15 0.15 0.17 0.21 0.24 0.27 0.30 0.28 0.24 0.19 0.15 0.13 0.10 0.09
0.03 0.04 0.08 0.05 0.06 0.06 0.04 0.03 0.02 0.01 0.00 0.02 0.01 0.02 0.01 0.01 0.01 0.02 0.02 0.01 0.02 0.03 0.01 0.01 0.01 0.02 0.02 0.19 0.01 0.03 0.07 0.10 0.14 0.18 0.21 0.22 0.24 0.23 0.21 0.18 0.12 0.15 0.25 0.50 0.39 0.30 0.25 0.19 0.17 0.17 0.16 0.14
0.00 0.00 0.01 0.03 0.08 0.14 0.12 0.23 0.16 0.11 0.11 0.06 0.06 0.03 0.02 0.02 0.02 0.02 0.03 0.03 0.06 0.07 0.05 0.11 0.08 0.07 0.09 0.06 0.03 0.03 0.05 0.08 0.11 0.13 0.16 0.19 0.21 0.23 0.21 0.19 0.16 0.22 0.23 0.30 0.31 0.25 0.24 0.23 0.18 0.15 0.15 0.14
0.00 0.00 0.00 0.00 0.00 0.00 0.01 0.03 0.06 0.13 0.08 0.15 0.13 0.07 0.07 0.08 0.15 0.13 0.07 0.06 0.03 0.04 0.05 0.04 0.10 0.09 0.04 0.04 0.03 0.05 0.06 0.06 0.08 0.11 0.13 0.15 0.17 0.19 0.19 0.20 0.20 0.16 0.18 0.21 0.25 0.33 0.38 0.41 0.27 0.20 0.12 0.07
0.00 0.00 0.01 0.01 0.00 0.01 0.01 0.01 0.00 0.01 0.02 0.05 0.08 0.07 0.13 0.09 0.07 0.11 0.07 0.03 0.05 0.04 0.11 0.07 0.04 0.07 0.11 0.07 0.05 0.06 0.07 0.06 0.06 0.06 0.10 0.12 0.14 0.16 0.19 0.19 0.14 0.13 0.14 0.15 0.19 0.35 0.32 0.40 0.38 0.32 0.26 0.12
0.00 0.00 0.01 0.00 0.01 0.01 0.00 0.01 0.00 0.01 0.00 0.00 0.00 0.01 0.02 0.03 0.03 0.03 0.03 0.04 0.04 0.03 0.03 0.04 0.07 0.07 0.03 0.04 0.06 0.05 0.05 0.05 0.06 0.08 0.07 0.08 0.11 0.15 0.16 0.17 0.18 0.16 0.11 0.12 0.16 0.24 0.35 0.37 0.28 0.21 0.13 0.11
0.00 0.00 0.00 0.01 0.01 0.01 0.01 0.00 0.00 0.00 0.00 0.00 0.01 0.00 0.00 0.01 0.01 0.02 0.04 0.02 0.02 0.04 0.05 0.05 0.08 0.06 0.06 0.07 0.07 0.06 0.06 0.06 0.06 0.06 0.22 0.24 0.13 0.13 0.14 0.15 0.19 0.18 0.15 0.10 0.12 0.19 0.23 0.22 0.25 0.22 0.15 0.12